Time,TemperatureF,DewpointF,PressureIn,WindDirection,WindDirectionDegrees,WindSpeedMPH,WindSpeedGustMPH,Humidity,HourlyPrecipIn,Conditions,Clouds,dailyrainin,SolarRadiationWatts/m^2,SoftwareType,DateUTC
2013-04-20 00:00:00,30.7,27.6,30.06,WNW,295,5.0,5.0,88,0.00,,,0.00,0,Wunderground v.1.15,2013-04-20 05:00:00,
2013-04-20 00:03:00,30.7,27.6,30.07,WNW,296,4.0,6.0,88,0.00,,,0.00,0,Wunderground v.1.15,2013-04-20 05:03:00,
2013-04-20 00:04:00,30.7,27.6,30.06,WNW,296,5.0,6.0,88,0.00,,,0.00,0,Wunderground v.1.15,2013-04-20 05:04:00,
2013-04-20 00:05:00,30.7,27.6,30.07,WNW,296,5.0,6.0,88,0.00,,,0.00,0,Wunderground v.1.15,2013-04-20 05:05:00,
2013-04-20 00:06:00,30.7,27.6,30.06,WNW,299,5.0,6.0,88,0.00,,,0.00,0,Wunderground v.1.15,2013-04-20 05:06:00,
2013-04-20 00:12:00,30.7,27.6,30.06,NW,313,5.0,5.0,88,0.00,,,0.00,0,Wunderground v.1.15,2013-04-20 05:12:00,
2013-04-20 00:15:00,30.6,27.5,30.06,NW,313,5.0,5.0,88,0.00,,,0.00,0,Wunderground v.1.15,2013-04-20 05:15:00,
2013-04-20 00:16:00,30.6,27.2,30.06,NW,315,6.0,6.0,87,0.00,,,0.00,0,Wunderground v.1.15,2013-04-20 05:16:00,
2013-04-20 00:18:00,30.6,27.2,30.06,NW,315,6.0,6.0,87,0.00,,,0.00,0,Wunderground v.1.15,2013-04-20 05:18:00,
2013-04-20 00:19:00,30.6,27.2,30.06,NW,311,5.0,6.0,87,0.00,,,0.00,0,Wunderground v.1.15,2013-04-20 05:19:00,
2013-04-20 00:20:00,30.6,27.2,30.06,NW,313,5.0,5.0,87,0.00,,,0.00,0,Wunderground v.1.15,2013-04-20 05:20:00,
2013-04-20 00:22:00,30.6,27.2,30.06,NW,310,4.0,5.0,87,0.00,,,0.00,0,Wunderground v.1.15,2013-04-20 05:22:00,
2013-04-20 00:23:00,30.6,27.2,30.07,NW,309,5.0,6.0,87,0.00,,,0.00,0,Wunderground v.1.15,2013-04-20 05:23:00,
2013-04-20 00:27:00,30.5,27.4,30.07,NW,306,4.0,6.0,88,0.00,,,0.00,0,Wunderground v.1.15,2013-04-20 05:27:00,
2013-04-20 00:29:00,30.5,27.4,30.07,NW,308,4.0,6.0,88,0.00,,,0.00,0,Wunderground v.1.15,2013-04-20 05:29:00,
2013-04-20 00:33:00,30.4,27.3,30.07,NW,311,5.0,5.0,88,0.00,,,0.00,0,Wunderground v.1.15,2013-04-20 05:33:00,
2013-04-20 00:34:00,30.4,27.3,30.07,NW,307,4.0,5.0,88,0.00,,,0.00,0,Wunderground v.1.15,2013-04-20 05:34:00,
2013-04-20 00:37:00,30.3,26.9,30.07,NW,311,4.0,5.0,87,0.00,,,0.00,0,Wunderground v.1.15,2013-04-20 05:37:00,
2013-04-20 00:40:00,30.3,26.9,30.07,WNW,303,4.0,5.0,87,0.00,,,0.00,0,Wunderground v.1.15,2013-04-20 05:40:00,
2013-04-20 00:42:00,30.3,26.9,30.07,NW,308,5.0,5.0,87,0.00,,,0.00,0,Wunderground v.1.15,2013-04-20 05:42:00,
2013-04-20 00:43:00,30.3,26.9,30.07,NW,310,6.0,6.0,87,0.00,,,0.00,0,Wunderground v.1.15,2013-04-20 05:43:00,
2013-04-20 00:46:00,30.4,27.0,30.07,NW,304,5.0,6.0,87,0.00,,,0.00,0,Wunderground v.1.15,2013-04-20 05:46:00,
2013-04-20 00:48:00,30.4,27.0,30.08,WNW,302,5.0,6.0,87,0.00,,,0.00,0,Wunderground v.1.15,2013-04-20 05:48:00,
2013-04-20 00:49:00,30.4,27.0,30.08,NW,305,5.0,6.0,87,0.00,,,0.00,0,Wunderground v.1.15,2013-04-20 05:49:00,
2013-04-20 00:52:00,30.4,27.0,30.07,NW,308,8.0,8.0,87,0.00,,,0.00,0,Wunderground v.1.15,2013-04-20 05:52:00,
2013-04-20 00:54:00,30.4,27.0,30.08,NW,309,6.0,8.0,87,0.00,,,0.00,0,Wunderground v.1.15,2013-04-20 05:54:00,
2013-04-20 00:55:00,30.4,27.0,30.08,NW,311,6.0,8.0,87,0.00,,,0.00,0,Wunderground v.1.15,2013-04-20 05:55:00,
2013-04-20 00:57:00,30.4,27.0,30.08,NW,313,6.0,8.0,87,0.00,,,0.00,0,Wunderground v.1.15,2013-04-20 05:57:00,
2013-04-20 00:58:00,30.4,27.0,30.08,NW,313,5.0,8.0,87,0.00,,,0.00,0,Wunderground v.1.15,2013-04-20 05:58:00,
2013-04-20 01:01:00,30.4,27.0,30.08,NW,306,6.0,6.0,87,0.00,,,0.00,0,Wunderground v.1.15,2013-04-20 06:01:00,
2013-04-20 01:04:00,30.4,27.0,30.08,NW,306,6.0,6.0,87,0.00,,,0.00,0,Wunderground v.1.15,2013-04-20 06:04:00,
2013-04-20 01:06:00,30.4,27.0,30.08,NW,311,5.0,6.0,87,0.00,,,0.00,0,Wunderground v.1.15,2013-04-20 06:06:00,
2013-04-20 01:09:00,30.4,27.0,30.08,NW,315,6.0,6.0,87,0.00,,,0.00,0,Wunderground v.1.15,2013-04-20 06:09:00,
2013-04-20 01:11:00,30.3,26.9,30.08,NW,313,5.0,6.0,87,0.00,,,0.00,0,Wunderground v.1.15,2013-04-20 06:11:00,
2013-04-20 01:12:00,30.3,26.9,30.08,NW,313,5.0,6.0,87,0.00,,,0.00,0,Wunderground v.1.15,2013-04-20 06:12:00,
2013-04-20 01:15:00,30.3,26.9,30.08,NW,315,4.0,6.0,87,0.00,,,0.00,0,Wunderground v.1.15,2013-04-20 06:15:00,
2013-04-20 01:18:00,30.1,26.7,30.08,NW,313,4.0,6.0,87,0.00,,,0.00,0,Wunderground v.1.15,2013-04-20 06:18:00,
2013-04-20 01:20:00,30.1,26.7,30.08,NW,315,3.0,4.0,87,0.00,,,0.00,0,Wunderground v.1.15,2013-04-20 06:20:00,
2013-04-20 01:22:00,30.0,26.6,30.08,NW,314,3.0,4.0,87,0.00,,,0.00,0,Wunderground v.1.15,2013-04-20 06:22:00,
2013-04-20 01:25:00,29.9,26.5,30.08,NW,313,3.0,4.0,87,0.00,,,0.00,0,Wunderground v.1.15,2013-04-20 06:25:00,
2013-04-20 01:28:00,29.8,26.4,30.08,NW,310,4.0,4.0,87,0.00,,,0.00,0,Wunderground v.1.15,2013-04-20 06:28:00,
2013-04-20 01:29:00,29.8,26.4,30.08,NW,309,3.0,4.0,87,0.00,,,0.00,0,Wunderground v.1.15,2013-04-20 06:29:00,
2013-04-20 01:32:00,29.8,26.7,30.09,NW,309,3.0,3.0,88,0.00,,,0.00,0,Wunderground v.1.15,2013-04-20 06:32:00,
2013-04-20 01:33:00,29.7,26.6,30.08,NW,309,2.0,3.0,88,0.00,,,0.00,0,Wunderground v.1.15,2013-04-20 06:33:00,
2013-04-20 01:34:00,29.7,26.6,30.09,NW,309,3.0,3.0,88,0.00,,,0.00,0,Wunderground v.1.15,2013-04-20 06:34:00,
2013-04-20 01:35:00,29.6,26.5,30.09,NW,309,3.0,3.0,88,0.00,,,0.00,0,Wunderground v.1.15,2013-04-20 06:35:00,
2013-04-20 01:38:00,29.5,26.7,30.09,WNW,302,4.0,5.0,89,0.00,,,0.00,0,Wunderground v.1.15,2013-04-20 06:38:00,
2013-04-20 01:39:00,29.5,26.7,30.08,WNW,302,4.0,5.0,89,0.00,,,0.00,0,Wunderground v.1.15,2013-04-20 06:39:00,
2013-04-20 01:43:00,29.4,26.6,30.09,NW,307,5.0,5.0,89,0.00,,,0.00,0,Wunderground v.1.15,2013-04-20 06:43:00,
2013-04-20 01:44:00,29.4,26.6,30.09,NW,307,3.0,5.0,89,0.00,,,0.00,0,Wunderground v.1.15,2013-04-20 06:44:00,
2013-04-20 01:45:00,29.4,26.6,30.09,NW,307,4.0,5.0,89,0.00,,,0.00,0,Wunderground v.1.15,2013-04-20 06:45:00,
2013-04-20 01:46:00,29.3,26.5,30.09,NW,308,4.0,5.0,89,0.00,,,0.00,0,Wunderground v.1.15,2013-04-20 06:46:00,
2013-04-20 01:50:00,29.2,26.4,30.09,NW,309,3.0,4.0,89,0.00,,,0.00,0,Wunderground v.1.15,2013-04-20 06:50:00,
2013-04-20 01:52:00,29.1,26.3,30.09,NW,309,3.0,4.0,89,0.00,,,0.00,0,Wunderground v.1.15,2013-04-20 06:52:00,
2013-04-20 01:54:00,29.0,26.2,30.09,NW,309,3.0,4.0,89,0.00,,,0.00,0,Wunderground v.1.15,2013-04-20 06:54:00,
2013-04-20 01:56:00,29.0,26.2,30.09,NW,309,4.0,4.0,89,0.00,,,0.00,0,Wunderground v.1.15,2013-04-20 06:56:00,
2013-04-20 01:58:00,28.9,26.3,30.09,NW,311,4.0,4.0,90,0.00,,,0.00,0,Wunderground v.1.15,2013-04-20 06:58:00,
2013-04-20 02:00:00,28.9,26.3,30.09,NW,307,3.0,3.0,90,0.00,,,0.00,0,Wunderground v.1.15,2013-04-20 07:00:00,
2013-04-20 02:02:00,28.8,26.2,30.09,NW,307,3.0,4.0,90,0.00,,,0.00,0,Wunderground v.1.15,2013-04-20 07:02:00,
2013-04-20 02:03:00,28.9,26.3,30.09,NW,306,3.0,5.0,90,0.00,,,0.00,0,Wunderground v.1.15,2013-04-20 07:03:00,
2013-04-20 02:04:00,28.9,26.3,30.09,NW,306,4.0,5.0,90,0.00,,,0.00,0,Wunderground v.1.15,2013-04-20 07:04:00,
2013-04-20 02:07:00,28.9,26.3,30.09,WNW,302,5.0,5.0,90,0.00,,,0.00,0,Wunderground v.1.15,2013-04-20 07:07:00,
2013-04-20 02:09:00,28.9,26.3,30.09,WNW,302,3.0,5.0,90,0.00,,,0.00,0,Wunderground v.1.15,2013-04-20 07:09:00,
2013-04-20 02:10:00,28.9,26.3,30.10,WNW,300,4.0,4.0,90,0.00,,,0.00,0,Wunderground v.1.15,2013-04-20 07:10:00,
2013-04-20 02:11:00,28.9,26.3,30.09,WNW,300,5.0,5.0,90,0.00,,,0.00,0,Wunderground v.1.15,2013-04-20 07:11:00,
2013-04-20 02:12:00,28.9,26.3,30.10,WNW,300,3.0,5.0,90,0.00,,,0.00,0,Wunderground v.1.15,2013-04-20 07:12:00,
2013-04-20 02:15:00,28.9,26.3,30.10,WNW,300,4.0,5.0,90,0.00,,,0.00,0,Wunderground v.1.15,2013-04-20 07:15:00,
2013-04-20 02:16:00,28.8,26.2,30.10,WNW,301,4.0,5.0,90,0.00,,,0.00,0,Wunderground v.1.15,2013-04-20 07:16:00,
2013-04-20 02:17:00,28.8,26.2,30.10,NW,304,4.0,5.0,90,0.00,,,0.00,0,Wunderground v.1.15,2013-04-20 07:17:00,
2013-04-20 02:18:00,28.9,26.3,30.09,NW,306,5.0,5.0,90,0.00,,,0.00,0,Wunderground v.1.15,2013-04-20 07:18:00,
2013-04-20 02:21:00,28.8,26.2,30.09,NW,317,3.0,5.0,90,0.00,,,0.00,0,Wunderground v.1.15,2013-04-20 07:21:00,
2013-04-20 02:22:00,28.7,26.1,30.09,NW,318,3.0,5.0,90,0.00,,,0.00,0,Wunderground v.1.15,2013-04-20 07:22:00,
2013-04-20 02:23:00,28.6,26.0,30.09,NW,318,2.0,5.0,90,0.00,,,0.00,0,Wunderground v.1.15,2013-04-20 07:23:00,
2013-04-20 02:24:00,28.5,25.9,30.09,NW,318,0.0,5.0,90,0.00,,,0.00,0,Wunderground v.1.15,2013-04-20 07:24:00,
2013-04-20 02:27:00,28.2,25.6,30.09,NW,317,1.0,5.0,90,0.00,,,0.00,0,Wunderground v.1.15,2013-04-20 07:27:00,
2013-04-20 02:29:00,28.2,25.6,30.09,NW,319,3.0,5.0,90,0.00,,,0.00,0,Wunderground v.1.15,2013-04-20 07:29:00,
2013-04-20 02:30:00,28.2,25.6,30.09,NW,325,2.0,2.0,90,0.00,,,0.00,0,Wunderground v.1.15,2013-04-20 07:30:00,
2013-04-20 02:34:00,28.3,25.7,30.09,NW,325,2.0,4.0,90,0.00,,,0.00,0,Wunderground v.1.15,2013-04-20 07:34:00,
2013-04-20 02:35:00,28.4,25.8,30.09,NNW,328,2.0,4.0,90,0.00,,,0.00,0,Wunderground v.1.15,2013-04-20 07:35:00,
2013-04-20 02:36:00,28.4,25.8,30.09,NW,325,1.0,4.0,90,0.00,,,0.00,0,Wunderground v.1.15,2013-04-20 07:36:00,
2013-04-20 02:37:00,28.4,25.8,30.09,NNW,329,1.0,4.0,90,0.00,,,0.00,0,Wunderground v.1.15,2013-04-20 07:37:00,
2013-04-20 02:40:00,28.5,25.7,30.09,NNW,331,0.0,4.0,89,0.00,,,0.00,0,Wunderground v.1.15,2013-04-20 07:40:00,
2013-04-20 02:42:00,28.5,25.7,30.09,NNW,327,0.0,3.0,89,0.00,,,0.00,0,Wunderground v.1.15,2013-04-20 07:42:00,
2013-04-20 02:44:00,28.7,25.9,30.09,NW,317,4.0,4.0,89,0.00,,,0.00,0,Wunderground v.1.15,2013-04-20 07:44:00,
2013-04-20 02:45:00,28.7,25.6,30.09,NNW,327,0.0,4.0,88,0.00,,,0.00,0,Wunderground v.1.15,2013-04-20 07:45:00,
2013-04-20 02:46:00,28.7,25.6,30.09,NW,326,3.0,4.0,88,0.00,,,0.00,0,Wunderground v.1.15,2013-04-20 07:46:00,
2013-04-20 02:48:00,28.8,25.7,30.09,NW,319,1.0,4.0,88,0.00,,,0.00,0,Wunderground v.1.15,2013-04-20 07:48:00,
2013-04-20 02:49:00,28.8,25.7,30.09,NW,323,6.0,6.0,88,0.00,,,0.00,0,Wunderground v.1.15,2013-04-20 07:49:00,
2013-04-20 02:50:00,28.8,25.7,30.09,NNW,336,2.0,2.0,88,0.00,,,0.00,0,Wunderground v.1.15,2013-04-20 07:50:00,
2013-04-20 02:54:00,28.9,25.5,30.09,NNW,334,2.0,4.0,87,0.00,,,0.00,0,Wunderground v.1.15,2013-04-20 07:54:00,
2013-04-20 02:55:00,28.9,25.5,30.09,NNW,333,0.0,4.0,87,0.00,,,0.00,0,Wunderground v.1.15,2013-04-20 07:55:00,
2013-04-20 02:56:00,29.0,25.6,30.09,NNW,335,2.0,4.0,87,0.00,,,0.00,0,Wunderground v.1.15,2013-04-20 07:56:00,
2013-04-20 02:58:00,28.9,25.2,30.09,NNW,342,0.0,4.0,86,0.00,,,0.00,0,Wunderground v.1.15,2013-04-20 07:58:00,
2013-04-20 03:00:00,28.9,25.2,30.10,NNW,329,5.0,5.0,86,0.00,,,0.00,0,Wunderground v.1.15,2013-04-20 08:00:00,
2013-04-20 03:02:00,28.9,25.2,30.10,NW,313,1.0,5.0,86,0.00,,,0.00,0,Wunderground v.1.15,2013-04-20 08:02:00,
2013-04-20 03:03:00,29.0,25.3,30.10,NW,321,1.0,5.0,86,0.00,,,0.00,0,Wunderground v.1.15,2013-04-20 08:03:00,
2013-04-20 03:05:00,29.0,25.3,30.10,NW,317,3.0,5.0,86,0.00,,,0.00,0,Wunderground v.1.15,2013-04-20 08:05:00,
2013-04-20 03:06:00,29.0,25.3,30.10,NW,316,3.0,5.0,86,0.00,,,0.00,0,Wunderground v.1.15,2013-04-20 08:06:00,
2013-04-20 03:07:00,29.0,25.3,30.10,NW,317,3.0,5.0,86,0.00,,,0.00,0,Wunderground v.1.15,2013-04-20 08:07:00,
2013-04-20 03:08:00,29.1,25.4,30.10,NW,315,4.0,5.0,86,0.00,,,0.00,0,Wunderground v.1.15,2013-04-20 08:08:00,
2013-04-20 03:09:00,29.1,25.4,30.10,NW,319,4.0,6.0,86,0.00,,,0.00,0,Wunderground v.1.15,2013-04-20 08:09:00,
2013-04-20 03:11:00,29.1,25.4,30.10,NW,319,4.0,4.0,86,0.00,,,0.00,0,Wunderground v.1.15,2013-04-20 08:11:00,
2013-04-20 03:12:00,29.1,25.4,30.10,NW,319,3.0,4.0,86,0.00,,,0.00,0,Wunderground v.1.15,2013-04-20 08:12:00,
2013-04-20 03:13:00,29.1,25.4,30.10,NW,321,5.0,5.0,86,0.00,,,0.00,0,Wunderground v.1.15,2013-04-20 08:13:00,
2013-04-20 03:14:00,29.1,25.4,30.10,NW,318,4.0,5.0,86,0.00,,,0.00,0,Wunderground v.1.15,2013-04-20 08:14:00,
2013-04-20 03:15:00,29.0,25.3,30.10,NW,319,4.0,5.0,86,0.00,,,0.00,0,Wunderground v.1.15,2013-04-20 08:15:00,
2013-04-20 03:18:00,28.9,25.2,30.10,NW,313,4.0,5.0,86,0.00,,,0.00,0,Wunderground v.1.15,2013-04-20 08:18:00,
2013-04-20 03:19:00,28.9,25.2,30.10,NW,313,4.0,5.0,86,0.00,,,0.00,0,Wunderground v.1.15,2013-04-20 08:19:00,
2013-04-20 03:20:00,28.9,25.2,30.10,NW,313,4.0,4.0,86,0.00,,,0.00,0,Wunderground v.1.15,2013-04-20 08:20:00,
2013-04-20 03:24:00,28.8,25.4,30.10,NW,311,3.0,5.0,87,0.00,,,0.00,0,Wunderground v.1.15,2013-04-20 08:24:00,
2013-04-20 03:26:00,28.6,25.2,30.10,NW,311,2.0,5.0,87,0.00,,,0.00,0,Wunderground v.1.15,2013-04-20 08:26:00,
2013-04-20 03:29:00,28.2,24.8,30.10,NW,311,0.0,5.0,87,0.00,,,0.00,0,Wunderground v.1.15,2013-04-20 08:29:00,
2013-04-20 03:30:00,28.1,24.7,30.10,NW,311,0.0,2.0,87,0.00,,,0.00,0,Wunderground v.1.15,2013-04-20 08:30:00,
2013-04-20 03:31:00,27.7,24.3,30.10,NW,311,0.0,2.0,87,0.00,,,0.00,0,Wunderground v.1.15,2013-04-20 08:31:00,
2013-04-20 03:35:00,27.3,24.2,30.10,NW,311,1.0,2.0,88,0.00,,,0.00,0,Wunderground v.1.15,2013-04-20 08:35:00,
2013-04-20 03:36:00,27.2,24.1,30.10,NW,311,2.0,2.0,88,0.00,,,0.00,0,Wunderground v.1.15,2013-04-20 08:36:00,
2013-04-20 03:37:00,27.2,24.4,30.10,NW,311,2.0,2.0,89,0.00,,,0.00,0,Wunderground v.1.15,2013-04-20 08:37:00,
2013-04-20 03:38:00,27.2,24.4,30.10,NW,311,1.0,2.0,89,0.00,,,0.00,0,Wunderground v.1.15,2013-04-20 08:38:00,
2013-04-20 03:41:00,27.4,24.6,30.10,NW,311,2.0,2.0,89,0.00,,,0.00,0,Wunderground v.1.15,2013-04-20 08:41:00,
2013-04-20 03:43:00,27.4,24.6,30.11,NW,311,2.0,2.0,89,0.00,,,0.00,0,Wunderground v.1.15,2013-04-20 08:43:00,
2013-04-20 03:44:00,27.4,24.9,30.11,NW,311,2.0,2.0,90,0.00,,,0.00,0,Wunderground v.1.15,2013-04-20 08:44:00,
2013-04-20 03:46:00,27.3,24.8,30.11,NW,311,2.0,2.0,90,0.00,,,0.00,0,Wunderground v.1.15,2013-04-20 08:46:00,
2013-04-20 03:49:00,27.2,24.7,30.10,NW,311,2.0,3.0,90,0.00,,,0.00,0,Wunderground v.1.15,2013-04-20 08:49:00,
2013-04-20 03:50:00,27.2,24.7,30.10,NW,311,2.0,2.0,90,0.00,,,0.00,0,Wunderground v.1.15,2013-04-20 08:50:00,
2013-04-20 03:52:00,27.1,24.6,30.10,NW,311,2.0,3.0,90,0.00,,,0.00,0,Wunderground v.1.15,2013-04-20 08:52:00,
2013-04-20 03:54:00,27.0,24.5,30.10,NW,311,0.0,3.0,90,0.00,,,0.00,0,Wunderground v.1.15,2013-04-20 08:54:00,
2013-04-20 03:55:00,26.9,24.4,30.11,NW,311,1.0,3.0,90,0.00,,,0.00,0,Wunderground v.1.15,2013-04-20 08:55:00,
2013-04-20 03:57:00,26.7,24.2,30.11,NW,311,2.0,3.0,90,0.00,,,0.00,0,Wunderground v.1.15,2013-04-20 08:57:00,
2013-04-20 03:59:00,26.7,24.2,30.11,NW,311,2.0,3.0,90,0.00,,,0.00,0,Wunderground v.1.15,2013-04-20 08:59:00,
2013-04-20 04:00:00,26.7,24.2,30.11,NW,311,2.0,2.0,90,0.00,,,0.00,0,Wunderground v.1.15,2013-04-20 09:00:00,
2013-04-20 04:01:00,26.7,24.4,30.11,NW,311,1.0,2.0,91,0.00,,,0.00,0,Wunderground v.1.15,2013-04-20 09:01:00,
2013-04-20 04:03:00,26.7,24.4,30.11,NW,311,1.0,2.0,91,0.00,,,0.00,0,Wunderground v.1.15,2013-04-20 09:03:00,
2013-04-20 04:05:00,26.7,24.4,30.11,NW,311,2.0,2.0,91,0.00,,,0.00,0,Wunderground v.1.15,2013-04-20 09:05:00,
2013-04-20 04:06:00,26.7,24.4,30.11,NW,311,2.0,2.0,91,0.00,,,0.00,0,Wunderground v.1.15,2013-04-20 09:06:00,
2013-04-20 04:07:00,26.7,24.4,30.11,NW,311,2.0,2.0,91,0.00,,,0.00,0,Wunderground v.1.15,2013-04-20 09:07:00,
2013-04-20 04:09:00,26.7,24.4,30.11,NW,311,2.0,2.0,91,0.00,,,0.00,0,Wunderground v.1.15,2013-04-20 09:09:00,
2013-04-20 04:10:00,26.7,24.4,30.11,NW,311,3.0,3.0,91,0.00,,,0.00,0,Wunderground v.1.15,2013-04-20 09:10:00,
2013-04-20 04:11:00,26.6,24.3,30.11,NW,311,3.0,3.0,91,0.00,,,0.00,0,Wunderground v.1.15,2013-04-20 09:11:00,
2013-04-20 04:12:00,26.6,24.3,30.11,NW,311,2.0,3.0,91,0.00,,,0.00,0,Wunderground v.1.15,2013-04-20 09:12:00,
2013-04-20 04:13:00,26.6,24.3,30.11,NW,311,2.0,3.0,91,0.00,,,0.00,0,Wunderground v.1.15,2013-04-20 09:13:00,
2013-04-20 04:15:00,26.5,24.2,30.11,NW,311,1.0,3.0,91,0.00,,,0.00,0,Wunderground v.1.15,2013-04-20 09:15:00,
2013-04-20 04:16:00,26.5,24.2,30.11,NW,311,2.0,3.0,91,0.00,,,0.00,0,Wunderground v.1.15,2013-04-20 09:16:00,
2013-04-20 04:17:00,26.4,24.1,30.11,NW,311,2.0,3.0,91,0.00,,,0.00,0,Wunderground v.1.15,2013-04-20 09:17:00,
2013-04-20 04:18:00,26.4,24.1,30.11,NW,311,2.0,3.0,91,0.00,,,0.00,0,Wunderground v.1.15,2013-04-20 09:18:00,
2013-04-20 04:19:00,26.4,24.1,30.11,NW,311,2.0,3.0,91,0.00,,,0.00,0,Wunderground v.1.15,2013-04-20 09:19:00,
2013-04-20 04:20:00,26.3,24.0,30.11,NW,311,1.0,2.0,91,0.00,,,0.00,0,Wunderground v.1.15,2013-04-20 09:20:00,
2013-04-20 04:21:00,26.3,24.0,30.11,NW,311,2.0,2.0,91,0.00,,,0.00,0,Wunderground v.1.15,2013-04-20 09:21:00,
2013-04-20 04:24:00,26.2,24.2,30.11,NW,311,3.0,3.0,92,0.00,,,0.00,0,Wunderground v.1.15,2013-04-20 09:24:00,
2013-04-20 04:25:00,26.2,24.2,30.11,NW,311,2.0,3.0,92,0.00,,,0.00,0,Wunderground v.1.15,2013-04-20 09:25:00,
2013-04-20 04:26:00,26.3,24.3,30.12,NW,311,2.0,3.0,92,0.00,,,0.00,0,Wunderground v.1.15,2013-04-20 09:26:00,
2013-04-20 04:27:00,26.3,24.3,30.12,NW,311,2.0,3.0,92,0.00,,,0.00,0,Wunderground v.1.15,2013-04-20 09:27:00,
2013-04-20 04:30:00,26.3,24.3,30.12,NW,311,2.0,3.0,92,0.00,,,0.00,0,Wunderground v.1.15,2013-04-20 09:30:00,
2013-04-20 04:31:00,26.4,24.4,30.12,NW,311,2.0,2.0,92,0.00,,,0.00,0,Wunderground v.1.15,2013-04-20 09:31:00,
2013-04-20 04:32:00,26.5,24.5,30.12,NW,311,1.0,3.0,92,0.00,,,0.00,0,Wunderground v.1.15,2013-04-20 09:32:00,
2013-04-20 04:33:00,26.5,24.5,30.12,NW,311,1.0,3.0,92,0.00,,,0.00,0,Wunderground v.1.15,2013-04-20 09:33:00,
2013-04-20 04:35:00,26.3,24.3,30.12,NW,311,0.0,3.0,92,0.00,,,0.00,0,Wunderground v.1.15,2013-04-20 09:35:00,
2013-04-20 04:36:00,26.2,23.9,30.11,NW,311,0.0,3.0,91,0.00,,,0.00,0,Wunderground v.1.15,2013-04-20 09:36:00,
2013-04-20 04:38:00,26.0,23.7,30.12,NW,311,2.0,3.0,91,0.00,,,0.00,0,Wunderground v.1.15,2013-04-20 09:38:00,
2013-04-20 04:40:00,25.9,23.6,30.12,NW,311,2.0,3.0,91,0.00,,,0.00,0,Wunderground v.1.15,2013-04-20 09:40:00,
2013-04-20 04:41:00,25.9,23.6,30.12,NW,311,2.0,3.0,91,0.00,,,0.00,0,Wunderground v.1.15,2013-04-20 09:41:00,
2013-04-20 04:44:00,25.9,23.6,30.12,NW,311,2.0,3.0,91,0.00,,,0.00,0,Wunderground v.1.15,2013-04-20 09:44:00,
2013-04-20 04:45:00,25.9,23.9,30.12,NW,311,2.0,3.0,92,0.00,,,0.00,0,Wunderground v.1.15,2013-04-20 09:45:00,
2013-04-20 04:46:00,25.9,23.9,30.12,NW,311,2.0,3.0,92,0.00,,,0.00,0,Wunderground v.1.15,2013-04-20 09:46:00,
2013-04-20 04:47:00,25.9,23.9,30.12,NW,311,2.0,3.0,92,0.00,,,0.00,0,Wunderground v.1.15,2013-04-20 09:47:00,
2013-04-20 04:50:00,26.1,24.1,30.12,NW,311,2.0,3.0,92,0.00,,,0.00,0,Wunderground v.1.15,2013-04-20 09:50:00,
2013-04-20 04:51:00,26.1,24.1,30.12,NW,311,2.0,3.0,92,0.00,,,0.00,0,Wunderground v.1.15,2013-04-20 09:51:00,
2013-04-20 04:52:00,26.2,24.2,30.12,NW,311,2.0,3.0,92,0.00,,,0.00,0,Wunderground v.1.15,2013-04-20 09:52:00,
2013-04-20 04:55:00,26.3,24.3,30.12,NW,311,2.0,3.0,92,0.00,,,0.00,0,Wunderground v.1.15,2013-04-20 09:55:00,
2013-04-20 04:56:00,26.2,24.2,30.12,NW,311,2.0,3.0,92,0.00,,,0.00,0,Wunderground v.1.15,2013-04-20 09:56:00,
2013-04-20 04:57:00,26.3,24.3,30.12,NW,311,3.0,3.0,92,0.00,,,0.00,0,Wunderground v.1.15,2013-04-20 09:57:00,
2013-04-20 04:59:00,26.3,24.3,30.12,NW,311,2.0,3.0,92,0.00,,,0.00,0,Wunderground v.1.15,2013-04-20 09:59:00,
2013-04-20 05:02:00,26.3,24.3,30.13,NW,311,2.0,2.0,92,0.00,,,0.00,0,Wunderground v.1.15,2013-04-20 10:02:00,
2013-04-20 05:03:00,26.3,24.3,30.13,NW,311,1.0,2.0,92,0.00,,,0.00,0,Wunderground v.1.15,2013-04-20 10:03:00,
2013-04-20 05:05:00,26.3,24.3,30.13,NW,311,2.0,2.0,92,0.00,,,0.00,0,Wunderground v.1.15,2013-04-20 10:05:00,
2013-04-20 05:07:00,26.3,24.3,30.13,NW,311,1.0,2.0,92,0.00,,,0.00,0,Wunderground v.1.15,2013-04-20 10:07:00,
2013-04-20 05:08:00,26.3,24.3,30.13,NW,311,0.0,2.0,92,0.00,,,0.00,0,Wunderground v.1.15,2013-04-20 10:08:00,
2013-04-20 05:10:00,26.2,24.2,30.13,NW,311,0.0,2.0,92,0.00,,,0.00,0,Wunderground v.1.15,2013-04-20 10:10:00,
2013-04-20 05:13:00,26.2,24.2,30.13,NW,311,0.0,1.0,92,0.00,,,0.00,0,Wunderground v.1.15,2013-04-20 10:13:00,
2013-04-20 05:14:00,26.2,24.2,30.13,NW,311,0.0,1.0,92,0.00,,,0.00,0,Wunderground v.1.15,2013-04-20 10:14:00,
2013-04-20 05:15:00,26.2,24.2,30.13,NW,311,0.0,1.0,92,0.00,,,0.00,0,Wunderground v.1.15,2013-04-20 10:15:00,
2013-04-20 05:16:00,26.2,24.2,30.13,NW,311,1.0,2.0,92,0.00,,,0.00,0,Wunderground v.1.15,2013-04-20 10:16:00,
2013-04-20 05:19:00,26.1,24.1,30.13,NW,311,3.0,3.0,92,0.00,,,0.00,0,Wunderground v.1.15,2013-04-20 10:19:00,
2013-04-20 05:20:00,26.1,24.1,30.13,NW,311,2.0,3.0,92,0.00,,,0.00,0,Wunderground v.1.15,2013-04-20 10:20:00,
2013-04-20 05:21:00,26.1,24.1,30.13,NW,311,2.0,2.0,92,0.00,,,0.00,0,Wunderground v.1.15,2013-04-20 10:21:00,
2013-04-20 05:22:00,26.1,24.1,30.13,NW,311,2.0,2.0,92,0.00,,,0.00,0,Wunderground v.1.15,2013-04-20 10:22:00,
2013-04-20 05:24:00,26.1,24.1,30.13,NW,311,1.0,3.0,92,0.00,,,0.00,0,Wunderground v.1.15,2013-04-20 10:24:00,
2013-04-20 05:25:00,26.1,24.1,30.13,NW,311,2.0,3.0,92,0.00,,,0.00,0,Wunderground v.1.15,2013-04-20 10:25:00,
2013-04-20 05:26:00,26.0,24.0,30.13,NW,311,1.0,3.0,92,0.00,,,0.00,0,Wunderground v.1.15,2013-04-20 10:26:00,
2013-04-20 05:27:00,26.0,24.0,30.14,NW,311,1.0,3.0,92,0.00,,,0.00,0,Wunderground v.1.15,2013-04-20 10:27:00,
2013-04-20 05:29:00,26.0,24.0,30.14,NW,311,2.0,3.0,92,0.00,,,0.00,0,Wunderground v.1.15,2013-04-20 10:29:00,
2013-04-20 05:30:00,26.0,24.0,30.13,NW,311,2.0,2.0,92,0.00,,,0.00,0,Wunderground v.1.15,2013-04-20 10:30:00,
2013-04-20 05:31:00,26.1,24.1,30.14,NW,311,3.0,3.0,92,0.00,,,0.00,0,Wunderground v.1.15,2013-04-20 10:31:00,
2013-04-20 05:32:00,26.0,24.0,30.14,NW,311,1.0,3.0,92,0.00,,,0.00,0,Wunderground v.1.15,2013-04-20 10:32:00,
2013-04-20 05:34:00,26.1,24.1,30.14,NW,311,3.0,3.0,92,0.00,,,0.00,0,Wunderground v.1.15,2013-04-20 10:34:00,
2013-04-20 05:36:00,26.1,24.1,30.14,NW,308,2.0,3.0,92,0.00,,,0.00,0,Wunderground v.1.15,2013-04-20 10:36:00,
2013-04-20 05:37:00,26.1,24.1,30.14,NW,304,3.0,3.0,92,0.00,,,0.00,0,Wunderground v.1.15,2013-04-20 10:37:00,
2013-04-20 05:38:00,26.0,24.0,30.14,NW,304,2.0,3.0,92,0.00,,,0.00,0,Wunderground v.1.15,2013-04-20 10:38:00,
2013-04-20 05:39:00,26.1,24.1,30.14,NW,304,3.0,3.0,92,0.00,,,0.00,0,Wunderground v.1.15,2013-04-20 10:39:00,
2013-04-20 05:42:00,26.1,24.1,30.14,NW,304,1.0,3.0,92,0.00,,,0.00,0,Wunderground v.1.15,2013-04-20 10:42:00,
2013-04-20 05:43:00,26.0,24.0,30.14,NW,304,2.0,3.0,92,0.00,,,0.00,0,Wunderground v.1.15,2013-04-20 10:43:00,
2013-04-20 05:45:00,26.0,24.0,30.14,NW,304,1.0,3.0,92,0.00,,,0.00,0,Wunderground v.1.15,2013-04-20 10:45:00,
2013-04-20 05:46:00,26.0,24.0,30.14,NW,304,2.0,3.0,92,0.00,,,0.00,0,Wunderground v.1.15,2013-04-20 10:46:00,
2013-04-20 05:47:00,26.0,24.0,30.14,NW,304,1.0,3.0,92,0.00,,,0.00,0,Wunderground v.1.15,2013-04-20 10:47:00,
2013-04-20 05:48:00,26.1,24.1,30.14,NW,304,2.0,3.0,92,0.00,,,0.00,0,Wunderground v.1.15,2013-04-20 10:48:00,
2013-04-20 05:50:00,26.1,24.1,30.14,NW,304,2.0,3.0,92,0.00,,,0.00,0,Wunderground v.1.15,2013-04-20 10:50:00,
2013-04-20 05:51:00,26.1,24.1,30.14,NW,304,3.0,3.0,92,0.00,,,0.00,0,Wunderground v.1.15,2013-04-20 10:51:00,
2013-04-20 05:52:00,26.2,24.2,30.14,NW,304,4.0,4.0,92,0.00,,,0.00,0,Wunderground v.1.15,2013-04-20 10:52:00,
2013-04-20 05:54:00,26.1,24.1,30.14,NW,304,2.0,4.0,92,0.00,,,0.00,0,Wunderground v.1.15,2013-04-20 10:54:00,
2013-04-20 05:56:00,26.0,23.7,30.14,NW,304,3.0,4.0,91,0.00,,,0.00,0,Wunderground v.1.15,2013-04-20 10:56:00,
2013-04-20 05:57:00,25.9,23.6,30.14,NW,304,3.0,4.0,91,0.00,,,0.00,0,Wunderground v.1.15,2013-04-20 10:57:00,
2013-04-20 06:00:00,25.7,23.4,30.14,NW,304,3.0,3.0,91,0.00,,,0.00,0,Wunderground v.1.15,2013-04-20 11:00:00,
2013-04-20 06:02:00,25.7,23.4,30.15,NW,304,4.0,4.0,91,0.00,,,0.00,0,Wunderground v.1.15,2013-04-20 11:02:00,
2013-04-20 06:03:00,25.7,23.4,30.15,NW,308,3.0,4.0,91,0.00,,,0.00,0,Wunderground v.1.15,2013-04-20 11:03:00,
2013-04-20 06:04:00,25.6,23.3,30.15,NW,309,3.0,4.0,91,0.00,,,0.00,0,Wunderground v.1.15,2013-04-20 11:04:00,
2013-04-20 06:05:00,25.6,23.3,30.15,NW,313,3.0,4.0,91,0.00,,,0.00,0,Wunderground v.1.15,2013-04-20 11:05:00,
2013-04-20 06:07:00,25.6,23.6,30.15,NW,313,3.0,4.0,92,0.00,,,0.00,0,Wunderground v.1.15,2013-04-20 11:07:00,
2013-04-20 06:08:00,25.6,23.6,30.15,NW,313,3.0,4.0,92,0.00,,,0.00,0,Wunderground v.1.15,2013-04-20 11:08:00,
2013-04-20 06:09:00,25.6,23.6,30.15,NW,313,2.0,4.0,92,0.00,,,0.00,0,Wunderground v.1.15,2013-04-20 11:09:00,
2013-04-20 06:10:00,25.5,23.5,30.15,NW,313,2.0,3.0,92,0.00,,,0.00,0,Wunderground v.1.15,2013-04-20 11:10:00,
2013-04-20 06:13:00,25.4,23.4,30.15,NW,314,0.0,3.0,92,0.00,,,0.00,0,Wunderground v.1.15,2013-04-20 11:13:00,
2013-04-20 06:14:00,25.4,23.4,30.15,NW,314,2.0,3.0,92,0.00,,,0.00,0,Wunderground v.1.15,2013-04-20 11:14:00,
2013-04-20 06:16:00,25.3,23.3,30.15,NW,314,3.0,3.0,92,0.00,,,0.00,0,Wunderground v.1.15,2013-04-20 11:16:00,
2013-04-20 06:17:00,25.4,23.4,30.15,NW,314,3.0,4.0,92,0.00,,,0.00,0,Wunderground v.1.15,2013-04-20 11:17:00,
2013-04-20 06:20:00,25.4,23.4,30.15,NW,314,4.0,4.0,92,0.00,,,0.00,0,Wunderground v.1.15,2013-04-20 11:20:00,
2013-04-20 06:21:00,25.5,23.5,30.16,NW,314,4.0,4.0,92,0.00,,,0.00,0,Wunderground v.1.15,2013-04-20 11:21:00,
2013-04-20 06:23:00,25.5,23.5,30.16,NW,314,3.0,4.0,92,0.00,,,0.00,0,Wunderground v.1.15,2013-04-20 11:23:00,
2013-04-20 06:26:00,25.6,23.6,30.16,NW,312,4.0,4.0,92,0.00,,,0.00,5,Wunderground v.1.15,2013-04-20 11:26:00,
2013-04-20 06:27:00,25.6,23.6,30.16,NW,306,3.0,4.0,92,0.00,,,0.00,5,Wunderground v.1.15,2013-04-20 11:27:00,
2013-04-20 06:29:00,25.6,23.6,30.16,NW,306,3.0,4.0,92,0.00,,,0.00,5,Wunderground v.1.15,2013-04-20 11:29:00,
2013-04-20 06:32:00,25.7,23.7,30.17,NW,306,5.0,5.0,92,0.00,,,0.00,7,Wunderground v.1.15,2013-04-20 11:32:00,
2013-04-20 06:34:00,25.7,23.7,30.17,NW,306,3.0,5.0,92,0.00,,,0.00,9,Wunderground v.1.15,2013-04-20 11:34:00,
2013-04-20 06:35:00,25.7,23.7,30.17,NW,306,3.0,5.0,92,0.00,,,0.00,9,Wunderground v.1.15,2013-04-20 11:35:00,
2013-04-20 06:37:00,25.7,23.7,30.17,NW,306,2.0,5.0,92,0.00,,,0.00,11,Wunderground v.1.15,2013-04-20 11:37:00,
2013-04-20 06:38:00,25.7,23.4,30.17,NW,306,2.0,5.0,91,0.00,,,0.00,11,Wunderground v.1.15,2013-04-20 11:38:00,
2013-04-20 06:39:00,25.7,23.4,30.17,NW,306,2.0,5.0,91,0.00,,,0.00,12,Wunderground v.1.15,2013-04-20 11:39:00,
2013-04-20 06:40:00,25.7,23.4,30.17,NW,306,3.0,3.0,91,0.00,,,0.00,12,Wunderground v.1.15,2013-04-20 11:40:00,
2013-04-20 06:44:00,25.6,23.3,30.17,NW,306,2.0,3.0,91,0.00,,,0.00,16,Wunderground v.1.15,2013-04-20 11:44:00,
2013-04-20 06:45:00,25.6,23.3,30.17,NW,306,2.0,3.0,91,0.00,,,0.00,16,Wunderground v.1.15,2013-04-20 11:45:00,
2013-04-20 06:46:00,25.5,23.2,30.17,NW,306,3.0,3.0,91,0.00,,,0.00,16,Wunderground v.1.15,2013-04-20 11:46:00,
2013-04-20 06:49:00,25.6,23.3,30.17,NW,306,2.0,3.0,91,0.00,,,0.00,19,Wunderground v.1.15,2013-04-20 11:49:00,
2013-04-20 06:51:00,25.6,23.6,30.17,NW,306,2.0,2.0,92,0.00,,,0.00,21,Wunderground v.1.15,2013-04-20 11:51:00,
2013-04-20 06:52:00,25.7,23.7,30.17,NW,306,2.0,2.0,92,0.00,,,0.00,23,Wunderground v.1.15,2013-04-20 11:52:00,
2013-04-20 06:55:00,25.8,23.8,30.18,NW,306,3.0,3.0,92,0.00,,,0.00,25,Wunderground v.1.15,2013-04-20 11:55:00,
2013-04-20 06:57:00,25.9,23.9,30.18,NW,304,2.0,3.0,92,0.00,,,0.00,30,Wunderground v.1.15,2013-04-20 11:57:00,
2013-04-20 06:59:00,26.0,24.0,30.18,NW,304,2.0,3.0,92,0.00,,,0.00,35,Wunderground v.1.15,2013-04-20 11:59:00,
2013-04-20 07:00:00,26.1,24.1,30.18,NW,304,2.0,3.0,92,0.00,,,0.00,35,Wunderground v.1.15,2013-04-20 12:00:00,
2013-04-20 07:02:00,26.2,24.2,30.18,NW,304,1.0,2.0,92,0.00,,,0.00,40,Wunderground v.1.15,2013-04-20 12:02:00,
2013-04-20 07:06:00,26.3,24.3,30.18,WNW,294,3.0,4.0,92,0.00,,,0.00,49,Wunderground v.1.15,2013-04-20 12:06:00,
2013-04-20 07:07:00,26.4,24.4,30.18,WNW,294,2.0,4.0,92,0.00,,,0.00,53,Wunderground v.1.15,2013-04-20 12:07:00,
2013-04-20 07:08:00,26.5,24.5,30.18,WNW,294,3.0,4.0,92,0.00,,,0.00,54,Wunderground v.1.15,2013-04-20 12:08:00,
2013-04-20 07:12:00,26.9,24.9,30.18,WNW,284,4.0,5.0,92,0.00,,,0.00,67,Wunderground v.1.15,2013-04-20 12:12:00,
2013-04-20 07:13:00,26.9,24.9,30.19,WNW,284,2.0,5.0,92,0.00,,,0.00,67,Wunderground v.1.15,2013-04-20 12:13:00,
2013-04-20 07:15:00,27.1,25.1,30.19,WNW,284,3.0,5.0,92,0.00,,,0.00,74,Wunderground v.1.15,2013-04-20 12:15:00,
2013-04-20 07:16:00,27.1,25.1,30.19,WNW,284,3.0,5.0,92,0.00,,,0.00,76,Wunderground v.1.15,2013-04-20 12:16:00,
2013-04-20 07:17:00,27.3,25.3,30.19,WNW,284,3.0,5.0,92,0.00,,,0.00,83,Wunderground v.1.15,2013-04-20 12:17:00,
2013-04-20 07:18:00,27.3,25.3,30.19,WNW,284,4.0,5.0,92,0.00,,,0.00,83,Wunderground v.1.15,2013-04-20 12:18:00,
2013-04-20 07:20:00,27.4,25.4,30.19,WNW,284,3.0,5.0,92,0.00,,,0.00,88,Wunderground v.1.15,2013-04-20 12:20:00,
2013-04-20 07:21:00,27.5,25.2,30.19,WNW,286,5.0,5.0,91,0.00,,,0.00,93,Wunderground v.1.15,2013-04-20 12:21:00,
2013-04-20 07:23:00,27.5,25.5,30.19,WNW,294,4.0,5.0,92,0.00,,,0.00,98,Wunderground v.1.15,2013-04-20 12:23:00,
2013-04-20 07:25:00,27.7,25.4,30.19,WNW,295,5.0,5.0,91,0.00,,,0.00,109,Wunderground v.1.15,2013-04-20 12:25:00,
2013-04-20 07:27:00,27.7,25.4,30.19,WNW,298,6.0,7.0,91,0.00,,,0.00,116,Wunderground v.1.15,2013-04-20 12:27:00,
2013-04-20 07:28:00,27.8,25.5,30.19,WNW,295,5.0,7.0,91,0.00,,,0.00,120,Wunderground v.1.15,2013-04-20 12:28:00,
2013-04-20 07:31:00,27.9,25.6,30.19,WNW,296,5.0,6.0,91,0.00,,,0.00,134,Wunderground v.1.15,2013-04-20 12:31:00,
2013-04-20 07:32:00,28.0,25.4,30.19,NW,304,4.0,6.0,90,0.00,,,0.00,137,Wunderground v.1.15,2013-04-20 12:32:00,
2013-04-20 07:33:00,28.0,25.4,30.19,WNW,295,4.0,6.0,90,0.00,,,0.00,141,Wunderground v.1.15,2013-04-20 12:33:00,
2013-04-20 07:36:00,28.2,25.6,30.19,WNW,300,4.0,6.0,90,0.00,,,0.00,153,Wunderground v.1.15,2013-04-20 12:36:00,
2013-04-20 07:38:00,28.3,25.7,30.19,WNW,302,5.0,6.0,90,0.00,,,0.00,162,Wunderground v.1.15,2013-04-20 12:38:00,
2013-04-20 07:39:00,28.4,25.8,30.20,WNW,302,4.0,6.0,90,0.00,,,0.00,163,Wunderground v.1.15,2013-04-20 12:39:00,
2013-04-20 07:42:00,28.5,25.9,30.20,WNW,302,5.0,5.0,90,0.00,,,0.00,179,Wunderground v.1.15,2013-04-20 12:42:00,
2013-04-20 07:44:00,28.5,25.7,30.20,NW,306,4.0,5.0,89,0.00,,,0.00,186,Wunderground v.1.15,2013-04-20 12:44:00,
2013-04-20 07:45:00,28.5,25.7,30.20,NW,304,3.0,5.0,89,0.00,,,0.00,193,Wunderground v.1.15,2013-04-20 12:45:00,
2013-04-20 07:47:00,28.6,25.8,30.20,NW,307,5.0,5.0,89,0.00,,,0.00,200,Wunderground v.1.15,2013-04-20 12:47:00,
2013-04-20 07:49:00,28.7,25.6,30.20,NW,305,5.0,5.0,88,0.00,,,0.00,207,Wunderground v.1.15,2013-04-20 12:49:00,
2013-04-20 07:50:00,28.8,25.7,30.20,NW,307,3.0,4.0,88,0.00,,,0.00,207,Wunderground v.1.15,2013-04-20 12:50:00,
2013-04-20 07:51:00,28.8,25.7,30.20,NW,309,4.0,4.0,88,0.00,,,0.00,214,Wunderground v.1.15,2013-04-20 12:51:00,
2013-04-20 07:52:00,28.9,25.8,30.20,NW,315,3.0,5.0,88,0.00,,,0.00,221,Wunderground v.1.15,2013-04-20 12:52:00,
2013-04-20 07:55:00,29.1,26.0,30.20,NW,309,5.0,6.0,88,0.00,,,0.00,232,Wunderground v.1.15,2013-04-20 12:55:00,
2013-04-20 07:56:00,29.1,26.0,30.20,NW,313,5.0,6.0,88,0.00,,,0.00,236,Wunderground v.1.15,2013-04-20 12:56:00,
2013-04-20 07:58:00,29.1,25.7,30.20,NW,311,5.0,6.0,87,0.00,,,0.00,244,Wunderground v.1.15,2013-04-20 12:58:00,
2013-04-20 07:59:00,29.2,25.8,30.20,NW,311,5.0,6.0,87,0.00,,,0.00,244,Wunderground v.1.15,2013-04-20 12:59:00,
2013-04-20 08:01:00,29.3,25.9,30.20,NW,315,3.0,5.0,87,0.00,,,0.00,255,Wunderground v.1.15,2013-04-20 13:01:00,
2013-04-20 08:02:00,29.4,26.3,30.20,NW,313,2.0,5.0,88,0.00,,,0.00,258,Wunderground v.1.15,2013-04-20 13:02:00,
2013-04-20 08:03:00,29.4,26.0,30.21,NW,315,2.0,5.0,87,0.00,,,0.00,260,Wunderground v.1.15,2013-04-20 13:03:00,
2013-04-20 08:04:00,29.5,26.1,30.21,NW,319,4.0,5.0,87,0.00,,,0.00,260,Wunderground v.1.15,2013-04-20 13:04:00,
2013-04-20 08:05:00,29.5,25.8,30.21,NW,323,3.0,7.0,86,0.00,,,0.00,267,Wunderground v.1.15,2013-04-20 13:05:00,
2013-04-20 08:08:00,29.7,26.0,30.21,NW,323,0.0,7.0,86,0.00,,,0.00,281,Wunderground v.1.15,2013-04-20 13:08:00,
2013-04-20 08:09:00,29.8,25.8,30.21,NW,317,3.0,7.0,85,0.00,,,0.00,285,Wunderground v.1.15,2013-04-20 13:09:00,
2013-04-20 08:10:00,29.8,25.8,30.20,NW,318,2.0,7.0,85,0.00,,,0.00,288,Wunderground v.1.15,2013-04-20 13:10:00,
2013-04-20 08:14:00,30.5,26.2,30.21,NNE,23,0.0,5.0,84,0.00,,,0.00,302,Wunderground v.1.15,2013-04-20 13:14:00,
2013-04-20 08:15:00,30.6,26.3,30.21,NNW,333,2.0,5.0,84,0.00,,,0.00,299,Wunderground v.1.15,2013-04-20 13:15:00,
2013-04-20 08:18:00,30.6,25.8,30.21,NNW,327,1.0,5.0,82,0.00,,,0.00,302,Wunderground v.1.15,2013-04-20 13:18:00,
2013-04-20 08:21:00,30.6,25.8,30.21,NW,323,1.0,2.0,82,0.00,,,0.00,309,Wunderground v.1.15,2013-04-20 13:21:00,
2013-04-20 08:25:00,31.0,26.4,30.22,NW,319,1.0,4.0,83,0.00,,,0.00,323,Wunderground v.1.15,2013-04-20 13:25:00,
2013-04-20 08:26:00,31.0,26.1,30.22,NW,313,2.0,4.0,82,0.00,,,0.00,325,Wunderground v.1.15,2013-04-20 13:26:00,
2013-04-20 08:28:00,31.0,25.9,30.22,NNE,13,1.0,4.0,81,0.00,,,0.00,330,Wunderground v.1.15,2013-04-20 13:28:00,
2013-04-20 08:30:00,30.9,26.1,30.22,NW,323,2.0,2.0,82,0.00,,,0.00,339,Wunderground v.1.15,2013-04-20 13:30:00,
2013-04-20 08:31:00,30.9,26.1,30.22,NW,323,1.0,2.0,82,0.00,,,0.00,343,Wunderground v.1.15,2013-04-20 13:31:00,
2013-04-20 08:32:00,30.9,26.1,30.22,WNW,302,2.0,4.0,82,0.00,,,0.00,346,Wunderground v.1.15,2013-04-20 13:32:00,
2013-04-20 08:34:00,30.9,26.1,30.22,NW,314,4.0,4.0,82,0.00,,,0.00,353,Wunderground v.1.15,2013-04-20 13:34:00,
2013-04-20 08:35:00,30.9,26.1,30.22,NW,318,2.0,4.0,82,0.00,,,0.00,357,Wunderground v.1.15,2013-04-20 13:35:00,
2013-04-20 08:37:00,31.1,26.0,30.22,North,5,3.0,5.0,81,0.00,,,0.00,366,Wunderground v.1.15,2013-04-20 13:37:00,
2013-04-20 08:38:00,31.1,26.0,30.22,North,5,0.0,5.0,81,0.00,,,0.00,366,Wunderground v.1.15,2013-04-20 13:38:00,
2013-04-20 08:39:00,31.3,26.1,30.22,NW,325,1.0,5.0,81,0.00,,,0.00,369,Wunderground v.1.15,2013-04-20 13:39:00,
2013-04-20 08:41:00,31.6,26.7,30.22,NW,319,5.0,5.0,82,0.00,,,0.00,371,Wunderground v.1.15,2013-04-20 13:41:00,
2013-04-20 08:43:00,31.4,26.2,30.22,WNW,296,5.0,5.0,81,0.00,,,0.00,383,Wunderground v.1.15,2013-04-20 13:43:00,
2013-04-20 08:44:00,31.4,25.9,30.22,NW,318,3.0,5.0,80,0.00,,,0.00,385,Wunderground v.1.15,2013-04-20 13:44:00,
2013-04-20 08:46:00,31.4,25.9,30.22,NW,311,2.0,5.0,80,0.00,,,0.00,394,Wunderground v.1.15,2013-04-20 13:46:00,
2013-04-20 08:47:00,31.5,26.0,30.22,NW,311,0.0,5.0,80,0.00,,,0.00,394,Wunderground v.1.15,2013-04-20 13:47:00,
2013-04-20 08:48:00,31.7,26.8,30.22,WNW,303,3.0,5.0,82,0.00,,,0.00,399,Wunderground v.1.15,2013-04-20 13:48:00,
2013-04-20 08:50:00,31.9,27.0,30.22,NW,311,3.0,5.0,82,0.00,,,0.00,404,Wunderground v.1.15,2013-04-20 13:50:00,
2013-04-20 08:52:00,32.0,27.1,30.22,NW,317,4.0,4.0,82,0.00,,,0.00,411,Wunderground v.1.15,2013-04-20 13:52:00,
2013-04-20 08:53:00,31.9,26.7,30.22,WNW,299,5.0,6.0,81,0.00,,,0.00,418,Wunderground v.1.15,2013-04-20 13:53:00,
2013-04-20 08:55:00,31.8,26.6,30.23,WNW,296,5.0,6.0,81,0.00,,,0.00,424,Wunderground v.1.15,2013-04-20 13:55:00,
2013-04-20 08:57:00,31.7,26.2,30.23,WNW,292,4.0,6.0,80,0.00,,,0.00,432,Wunderground v.1.15,2013-04-20 13:57:00,
2013-04-20 08:58:00,31.7,26.5,30.23,WNW,302,3.0,6.0,81,0.00,,,0.00,434,Wunderground v.1.15,2013-04-20 13:58:00,
2013-04-20 08:59:00,31.7,26.5,30.23,NW,312,4.0,6.0,81,0.00,,,0.00,436,Wunderground v.1.15,2013-04-20 13:59:00,
2013-04-20 09:00:00,31.8,26.9,30.23,NW,309,4.0,4.0,82,0.00,,,0.00,441,Wunderground v.1.15,2013-04-20 14:00:00,
2013-04-20 09:03:00,32.0,27.1,30.23,NW,311,4.0,5.0,82,0.00,,,0.00,450,Wunderground v.1.15,2013-04-20 14:03:00,
2013-04-20 09:04:00,32.0,26.8,30.23,NW,311,2.0,5.0,81,0.00,,,0.00,454,Wunderground v.1.15,2013-04-20 14:04:00,
2013-04-20 09:05:00,32.0,26.8,30.23,NW,317,3.0,5.0,81,0.00,,,0.00,457,Wunderground v.1.15,2013-04-20 14:05:00,
2013-04-20 09:06:00,32.1,26.6,30.23,NW,317,1.0,5.0,80,0.00,,,0.00,461,Wunderground v.1.15,2013-04-20 14:06:00,
2013-04-20 09:09:00,32.3,27.1,30.23,NW,315,4.0,5.0,81,0.00,,,0.00,468,Wunderground v.1.15,2013-04-20 14:09:00,
2013-04-20 09:11:00,32.4,26.6,30.23,WNW,299,2.0,4.0,79,0.00,,,0.00,476,Wunderground v.1.15,2013-04-20 14:11:00,
2013-04-20 09:12:00,32.4,26.6,30.23,NW,311,4.0,4.0,79,0.00,,,0.00,480,Wunderground v.1.15,2013-04-20 14:12:00,
2013-04-20 09:14:00,32.4,26.9,30.23,NW,309,1.0,5.0,80,0.00,,,0.00,485,Wunderground v.1.15,2013-04-20 14:14:00,
2013-04-20 09:15:00,32.5,26.7,30.23,NW,309,2.0,5.0,79,0.00,,,0.00,492,Wunderground v.1.15,2013-04-20 14:15:00,
2013-04-20 09:16:00,32.5,27.0,30.23,WNW,295,3.0,5.0,80,0.00,,,0.00,494,Wunderground v.1.15,2013-04-20 14:16:00,
2013-04-20 09:17:00,32.5,27.0,30.23,WNW,295,2.0,5.0,80,0.00,,,0.00,494,Wunderground v.1.15,2013-04-20 14:17:00,
2013-04-20 09:19:00,32.6,27.1,30.23,NW,311,0.0,5.0,80,0.00,,,0.00,504,Wunderground v.1.15,2013-04-20 14:19:00,
2013-04-20 09:21:00,33.1,27.6,30.24,NW,311,3.0,4.0,80,0.00,,,0.00,512,Wunderground v.1.15,2013-04-20 14:21:00,
2013-04-20 09:23:00,33.1,27.0,30.24,NW,311,0.0,4.0,78,0.00,,,0.00,512,Wunderground v.1.15,2013-04-20 14:23:00,
2013-04-20 09:25:00,33.3,27.5,30.24,NW,304,4.0,5.0,79,0.00,,,0.00,520,Wunderground v.1.15,2013-04-20 14:25:00,
2013-04-20 09:26:00,33.3,27.5,30.24,WNW,300,4.0,5.0,79,0.00,,,0.00,527,Wunderground v.1.15,2013-04-20 14:26:00,
2013-04-20 09:27:00,33.1,26.7,30.24,WNW,295,2.0,5.0,77,0.00,,,0.00,531,Wunderground v.1.15,2013-04-20 14:27:00,
2013-04-20 09:28:00,33.0,26.6,30.24,WNW,295,1.0,5.0,77,0.00,,,0.00,533,Wunderground v.1.15,2013-04-20 14:28:00,
2013-04-20 09:29:00,33.0,26.9,30.24,WNW,295,3.0,5.0,78,0.00,,,0.00,538,Wunderground v.1.15,2013-04-20 14:29:00,
2013-04-20 09:31:00,32.9,26.8,30.24,WNW,293,4.0,4.0,78,0.00,,,0.00,538,Wunderground v.1.15,2013-04-20 14:31:00,
2013-04-20 09:32:00,33.0,27.2,30.24,WNW,284,2.0,5.0,79,0.00,,,0.00,541,Wunderground v.1.15,2013-04-20 14:32:00,
2013-04-20 09:34:00,33.3,27.8,30.24,NW,311,3.0,6.0,80,0.00,,,0.00,548,Wunderground v.1.15,2013-04-20 14:34:00,
2013-04-20 09:35:00,33.4,27.9,30.24,NW,311,2.0,6.0,80,0.00,,,0.00,554,Wunderground v.1.15,2013-04-20 14:35:00,
2013-04-20 09:36:00,33.4,27.6,30.24,NW,311,0.0,6.0,79,0.00,,,0.00,555,Wunderground v.1.15,2013-04-20 14:36:00,
2013-04-20 09:37:00,33.9,28.1,30.24,NW,311,1.0,6.0,79,0.00,,,0.00,563,Wunderground v.1.15,2013-04-20 14:37:00,
2013-04-20 09:40:00,33.6,27.2,30.24,WNW,294,2.0,6.0,77,0.00,,,0.00,571,Wunderground v.1.15,2013-04-20 14:40:00,
2013-04-20 09:43:00,33.8,27.7,30.24,NW,308,4.0,5.0,78,0.00,,,0.00,580,Wunderground v.1.15,2013-04-20 14:43:00,
2013-04-20 09:45:00,33.8,28.0,30.24,WNW,290,3.0,6.0,79,0.00,,,0.00,587,Wunderground v.1.15,2013-04-20 14:45:00,
2013-04-20 09:46:00,33.8,28.0,30.24,WNW,290,3.0,6.0,79,0.00,,,0.00,589,Wunderground v.1.15,2013-04-20 14:46:00,
2013-04-20 09:48:00,33.7,27.6,30.24,WNW,286,3.0,6.0,78,0.00,,,0.00,594,Wunderground v.1.15,2013-04-20 14:48:00,
2013-04-20 09:49:00,33.5,27.4,30.24,WNW,286,2.0,6.0,78,0.00,,,0.00,596,Wunderground v.1.15,2013-04-20 14:49:00,
2013-04-20 09:50:00,33.7,27.9,30.24,WNW,286,5.0,5.0,79,0.00,,,0.00,601,Wunderground v.1.15,2013-04-20 14:50:00,
2013-04-20 09:51:00,33.7,28.2,30.24,WNW,287,3.0,5.0,80,0.00,,,0.00,601,Wunderground v.1.15,2013-04-20 14:51:00,
2013-04-20 09:53:00,33.8,27.4,30.24,WNW,287,5.0,5.0,77,0.00,,,0.00,610,Wunderground v.1.15,2013-04-20 14:53:00,
2013-04-20 09:54:00,33.8,27.4,30.24,WNW,299,5.0,6.0,77,0.00,,,0.00,612,Wunderground v.1.15,2013-04-20 14:54:00,
2013-04-20 09:56:00,34.0,27.9,30.24,WNW,297,3.0,6.0,78,0.00,,,0.00,619,Wunderground v.1.15,2013-04-20 14:56:00,
2013-04-20 09:57:00,34.1,27.6,30.25,WNW,297,3.0,6.0,77,0.00,,,0.00,622,Wunderground v.1.15,2013-04-20 14:57:00,
2013-04-20 09:59:00,34.1,27.3,30.25,NW,307,2.0,6.0,76,0.00,,,0.00,628,Wunderground v.1.15,2013-04-20 14:59:00,
2013-04-20 10:00:00,34.2,27.4,30.25,NW,307,1.0,6.0,76,0.00,,,0.00,629,Wunderground v.1.15,2013-04-20 15:00:00,
2013-04-20 10:02:00,34.5,27.4,30.25,NW,311,2.0,3.0,75,0.00,,,0.00,635,Wunderground v.1.15,2013-04-20 15:02:00,
2013-04-20 10:03:00,34.6,27.8,30.25,NW,309,4.0,4.0,76,0.00,,,0.00,638,Wunderground v.1.15,2013-04-20 15:03:00,
2013-04-20 10:05:00,34.9,28.4,30.25,NW,304,3.0,4.0,77,0.00,,,0.00,645,Wunderground v.1.15,2013-04-20 15:05:00,
2013-04-20 10:06:00,34.9,27.8,30.25,WNW,293,1.0,5.0,75,0.00,,,0.00,647,Wunderground v.1.15,2013-04-20 15:06:00,
2013-04-20 10:09:00,34.8,27.4,30.25,WNW,292,1.0,7.0,74,0.00,,,0.00,654,Wunderground v.1.15,2013-04-20 15:09:00,
2013-04-20 10:11:00,34.9,27.8,30.25,WNW,290,3.0,3.0,75,0.00,,,0.00,663,Wunderground v.1.15,2013-04-20 15:11:00,
2013-04-20 10:12:00,35.0,27.9,30.25,WNW,284,5.0,5.0,75,0.00,,,0.00,663,Wunderground v.1.15,2013-04-20 15:12:00,
2013-04-20 10:13:00,35.0,27.9,30.25,West,281,5.0,5.0,75,0.00,,,0.00,666,Wunderground v.1.15,2013-04-20 15:13:00,
2013-04-20 10:14:00,35.1,28.0,30.25,West,281,2.0,5.0,75,0.00,,,0.00,670,Wunderground v.1.15,2013-04-20 15:14:00,
2013-04-20 10:16:00,35.2,27.7,30.25,WNW,296,3.0,5.0,74,0.00,,,0.00,673,Wunderground v.1.15,2013-04-20 15:16:00,
2013-04-20 10:17:00,35.2,28.1,30.25,WNW,291,4.0,5.0,75,0.00,,,0.00,673,Wunderground v.1.15,2013-04-20 15:17:00,
2013-04-20 10:19:00,35.2,27.7,30.25,WNW,289,2.0,5.0,74,0.00,,,0.00,680,Wunderground v.1.15,2013-04-20 15:19:00,
2013-04-20 10:21:00,35.3,28.2,30.25,West,261,5.0,7.0,75,0.00,,,0.00,693,Wunderground v.1.15,2013-04-20 15:21:00,
2013-04-20 10:22:00,35.3,27.8,30.25,West,271,3.0,7.0,74,0.00,,,0.00,694,Wunderground v.1.15,2013-04-20 15:22:00,
2013-04-20 10:24:00,35.5,28.7,30.25,West,261,3.0,7.0,76,0.00,,,0.00,698,Wunderground v.1.15,2013-04-20 15:24:00,
2013-04-20 10:25:00,35.5,28.4,30.25,West,261,3.0,7.0,75,0.00,,,0.00,700,Wunderground v.1.15,2013-04-20 15:25:00,
2013-04-20 10:26:00,35.4,27.9,30.25,West,261,2.0,7.0,74,0.00,,,0.00,703,Wunderground v.1.15,2013-04-20 15:26:00,
2013-04-20 10:28:00,35.6,28.5,30.25,West,274,3.0,7.0,75,0.00,,,0.00,707,Wunderground v.1.15,2013-04-20 15:28:00,
2013-04-20 10:30:00,35.7,27.9,30.25,West,275,3.0,4.0,73,0.00,,,0.00,708,Wunderground v.1.15,2013-04-20 15:30:00,
2013-04-20 10:33:00,35.9,28.7,30.25,West,271,3.0,5.0,75,0.00,,,0.00,719,Wunderground v.1.15,2013-04-20 15:33:00,
2013-04-20 10:34:00,35.9,28.4,30.25,West,273,2.0,5.0,74,0.00,,,0.00,721,Wunderground v.1.15,2013-04-20 15:34:00,
2013-04-20 10:35:00,36.0,28.5,30.25,West,273,4.0,5.0,74,0.00,,,0.00,724,Wunderground v.1.15,2013-04-20 15:35:00,
2013-04-20 10:39:00,36.5,29.3,30.25,WNW,283,4.0,5.0,75,0.00,,,0.00,735,Wunderground v.1.15,2013-04-20 15:39:00,
2013-04-20 10:40:00,36.5,28.3,30.25,NW,311,1.0,4.0,72,0.00,,,0.00,737,Wunderground v.1.15,2013-04-20 15:40:00,
2013-04-20 10:41:00,36.5,28.0,30.25,NW,306,4.0,4.0,71,0.00,,,0.00,738,Wunderground v.1.15,2013-04-20 15:41:00,
2013-04-20 10:44:00,36.5,28.0,30.25,WNW,284,4.0,4.0,71,0.00,,,0.00,745,Wunderground v.1.15,2013-04-20 15:44:00,
2013-04-20 10:45:00,36.6,28.4,30.25,WNW,292,3.0,4.0,72,0.00,,,0.00,752,Wunderground v.1.15,2013-04-20 15:45:00,
2013-04-20 10:46:00,37.2,30.7,30.25,NE,36,2.0,4.0,77,0.00,,,0.00,754,Wunderground v.1.15,2013-04-20 15:46:00,
2013-04-20 10:47:00,37.2,30.7,30.25,NE,36,2.0,4.0,77,0.00,,,0.00,754,Wunderground v.1.15,2013-04-20 15:47:00,
2013-04-20 10:49:00,37.8,29.9,30.25,WNW,292,3.0,6.0,73,0.00,,,0.00,759,Wunderground v.1.15,2013-04-20 15:49:00,
2013-04-20 10:50:00,37.8,29.9,30.26,WNW,297,3.0,6.0,73,0.00,,,0.00,759,Wunderground v.1.15,2013-04-20 15:50:00,
2013-04-20 10:52:00,37.8,29.9,30.25,West,276,6.0,6.0,73,0.00,,,0.00,766,Wunderground v.1.15,2013-04-20 15:52:00,
2013-04-20 10:53:00,37.5,28.6,30.25,NW,308,5.0,6.0,70,0.00,,,0.00,768,Wunderground v.1.15,2013-04-20 15:53:00,
2013-04-20 10:54:00,37.5,28.6,30.25,NW,307,3.0,6.0,70,0.00,,,0.00,768,Wunderground v.1.15,2013-04-20 15:54:00,
2013-04-20 10:56:00,37.3,29.4,30.26,West,276,7.0,8.0,73,0.00,,,0.00,773,Wunderground v.1.15,2013-04-20 15:56:00,
2013-04-20 10:57:00,37.2,28.7,30.25,West,259,3.0,8.0,71,0.00,,,0.00,775,Wunderground v.1.15,2013-04-20 15:57:00,
2013-04-20 10:58:00,37.2,29.3,30.25,NW,304,4.0,8.0,73,0.00,,,0.00,779,Wunderground v.1.15,2013-04-20 15:58:00,
2013-04-20 10:59:00,37.2,29.3,30.26,WNW,300,3.0,8.0,73,0.00,,,0.00,779,Wunderground v.1.15,2013-04-20 15:59:00,
2013-04-20 11:02:00,37.0,27.8,30.25,WNW,300,1.0,5.0,69,0.00,,,0.00,789,Wunderground v.1.15,2013-04-20 16:02:00,
2013-04-20 11:03:00,36.8,27.6,30.25,West,280,2.0,5.0,69,0.00,,,0.00,791,Wunderground v.1.15,2013-04-20 16:03:00,
2013-04-20 11:04:00,36.7,27.1,30.25,West,280,0.0,5.0,68,0.00,,,0.00,795,Wunderground v.1.15,2013-04-20 16:04:00,
2013-04-20 11:07:00,36.7,27.1,30.25,NNE,32,0.0,5.0,68,0.00,,,0.00,798,Wunderground v.1.15,2013-04-20 16:07:00,
2013-04-20 11:09:00,37.3,28.1,30.25,ENE,61,3.0,5.0,69,0.00,,,0.00,802,Wunderground v.1.15,2013-04-20 16:09:00,
2013-04-20 11:11:00,37.9,29.7,30.25,ENE,71,0.0,1.0,72,0.00,,,0.00,807,Wunderground v.1.15,2013-04-20 16:11:00,
2013-04-20 11:12:00,38.8,31.2,30.25,ENE,71,0.0,1.0,74,0.00,,,0.00,809,Wunderground v.1.15,2013-04-20 16:12:00,
2013-04-20 11:14:00,38.8,29.8,30.25,SW,214,2.0,3.0,70,0.00,,,0.00,816,Wunderground v.1.15,2013-04-20 16:14:00,
2013-04-20 11:15:00,38.6,28.9,30.25,WSW,243,0.0,3.0,68,0.00,,,0.00,816,Wunderground v.1.15,2013-04-20 16:15:00,
2013-04-20 11:17:00,38.5,29.2,30.26,WSW,252,1.0,3.0,69,0.00,,,0.00,821,Wunderground v.1.15,2013-04-20 16:17:00,
2013-04-20 11:18:00,38.4,28.4,30.26,WSW,252,2.0,3.0,67,0.00,,,0.00,821,Wunderground v.1.15,2013-04-20 16:18:00,
2013-04-20 11:20:00,38.2,27.8,30.25,WSW,252,0.0,3.0,66,0.00,,,0.00,824,Wunderground v.1.15,2013-04-20 16:20:00,
2013-04-20 11:21:00,38.3,28.3,30.25,NE,47,0.0,1.0,67,0.00,,,0.00,830,Wunderground v.1.15,2013-04-20 16:21:00,
2013-04-20 11:23:00,38.5,28.1,30.25,ENE,76,3.0,3.0,66,0.00,,,0.00,831,Wunderground v.1.15,2013-04-20 16:23:00,
2013-04-20 11:25:00,38.8,26.9,30.26,North,9,0.0,3.0,62,0.00,,,0.00,837,Wunderground v.1.15,2013-04-20 16:25:00,
2013-04-20 11:27:00,38.7,26.8,30.26,WNW,302,3.0,3.0,62,0.00,,,0.00,838,Wunderground v.1.15,2013-04-20 16:27:00,
2013-04-20 11:29:00,38.6,25.9,30.26,SW,227,0.0,4.0,60,0.00,,,0.00,844,Wunderground v.1.15,2013-04-20 16:29:00,
2013-04-20 11:30:00,38.6,26.7,30.26,SW,226,1.0,4.0,62,0.00,,,0.00,844,Wunderground v.1.15,2013-04-20 16:30:00,
2013-04-20 11:31:00,38.7,27.2,30.26,SW,226,0.0,1.0,63,0.00,,,0.00,847,Wunderground v.1.15,2013-04-20 16:31:00,
2013-04-20 11:32:00,38.9,27.8,30.26,SW,226,0.0,1.0,64,0.00,,,0.00,851,Wunderground v.1.15,2013-04-20 16:32:00,
2013-04-20 11:35:00,39.4,25.8,30.25,East,98,1.0,4.0,58,0.00,,,0.00,854,Wunderground v.1.15,2013-04-20 16:35:00,
2013-04-20 11:36:00,39.6,26.0,30.25,North,5,4.0,5.0,58,0.00,,,0.00,860,Wunderground v.1.15,2013-04-20 16:36:00,
2013-04-20 11:37:00,39.6,26.0,30.25,NE,40,3.0,5.0,58,0.00,,,0.00,860,Wunderground v.1.15,2013-04-20 16:37:00,
2013-04-20 11:38:00,39.9,25.9,30.25,NNE,20,0.0,5.0,57,0.00,,,0.00,863,Wunderground v.1.15,2013-04-20 16:38:00,
2013-04-20 11:41:00,39.4,25.4,30.26,NE,44,0.0,2.0,57,0.00,,,0.00,867,Wunderground v.1.15,2013-04-20 16:41:00,
2013-04-20 11:42:00,39.5,26.3,30.25,East,87,3.0,7.0,59,0.00,,,0.00,870,Wunderground v.1.15,2013-04-20 16:42:00,
2013-04-20 11:43:00,39.5,26.3,30.25,East,86,5.0,7.0,59,0.00,,,0.00,870,Wunderground v.1.15,2013-04-20 16:43:00,
2013-04-20 11:45:00,39.7,27.3,30.25,SE,136,4.0,7.0,61,0.00,,,0.00,874,Wunderground v.1.15,2013-04-20 16:45:00,
2013-04-20 11:47:00,39.9,27.5,30.25,ENE,65,1.0,7.0,61,0.00,,,0.00,879,Wunderground v.1.15,2013-04-20 16:47:00,
2013-04-20 11:48:00,40.0,27.2,30.25,ENE,65,0.0,7.0,60,0.00,,,0.00,879,Wunderground v.1.15,2013-04-20 16:48:00,
2013-04-20 11:49:00,40.2,26.6,30.25,NNE,13,1.0,7.0,58,0.00,,,0.00,874,Wunderground v.1.15,2013-04-20 16:49:00,
2013-04-20 11:50:00,40.6,28.2,30.25,East,80,3.0,3.0,61,0.00,,,0.00,874,Wunderground v.1.15,2013-04-20 16:50:00,
2013-04-20 11:53:00,40.3,25.4,30.25,ENE,77,2.0,5.0,55,0.00,,,0.00,882,Wunderground v.1.15,2013-04-20 16:53:00,
2013-04-20 11:54:00,40.2,25.7,30.25,East,79,3.0,5.0,56,0.00,,,0.00,884,Wunderground v.1.15,2013-04-20 16:54:00,
2013-04-20 11:56:00,40.1,24.8,30.25,East,92,0.0,7.0,54,0.00,,,0.00,891,Wunderground v.1.15,2013-04-20 16:56:00,
2013-04-20 11:58:00,40.4,25.5,30.25,NE,55,3.0,8.0,55,0.00,,,0.00,895,Wunderground v.1.15,2013-04-20 16:58:00,
2013-04-20 11:59:00,40.4,25.1,30.25,ENE,63,2.0,8.0,54,0.00,,,0.00,896,Wunderground v.1.15,2013-04-20 16:59:00,
2013-04-20 12:01:00,40.1,24.8,30.25,East,82,3.0,6.0,54,0.00,,,0.00,898,Wunderground v.1.15,2013-04-20 17:01:00,
2013-04-20 12:03:00,40.5,26.0,30.25,NNE,14,3.0,6.0,56,0.00,,,0.00,898,Wunderground v.1.15,2013-04-20 17:03:00,
2013-04-20 12:05:00,41.2,25.8,30.25,NE,44,3.0,6.0,54,0.00,,,0.00,902,Wunderground v.1.15,2013-04-20 17:05:00,
2013-04-20 12:06:00,41.1,24.8,30.25,NE,42,1.0,6.0,52,0.00,,,0.00,902,Wunderground v.1.15,2013-04-20 17:06:00,
2013-04-20 12:07:00,40.7,23.5,30.25,NE,36,0.0,6.0,50,0.00,,,0.00,904,Wunderground v.1.15,2013-04-20 17:07:00,
2013-04-20 12:08:00,40.7,23.5,30.25,NNE,30,2.0,6.0,50,0.00,,,0.00,904,Wunderground v.1.15,2013-04-20 17:08:00,
2013-04-20 12:10:00,40.8,26.3,30.25,WNW,297,0.0,3.0,56,0.00,,,0.00,909,Wunderground v.1.15,2013-04-20 17:10:00,
2013-04-20 12:11:00,40.8,27.6,30.25,WNW,297,0.0,3.0,59,0.00,,,0.00,909,Wunderground v.1.15,2013-04-20 17:11:00,
2013-04-20 12:12:00,41.1,27.0,30.25,East,79,6.0,6.0,57,0.00,,,0.00,911,Wunderground v.1.15,2013-04-20 17:12:00,
2013-04-20 12:13:00,41.1,25.7,30.25,ENE,74,5.0,6.0,54,0.00,,,0.00,912,Wunderground v.1.15,2013-04-20 17:13:00,
2013-04-20 12:15:00,41.1,25.7,30.25,East,96,3.0,6.0,54,0.00,,,0.00,912,Wunderground v.1.15,2013-04-20 17:15:00,
2013-04-20 12:17:00,41.0,26.5,30.25,ENE,61,4.0,6.0,56,0.00,,,0.00,912,Wunderground v.1.15,2013-04-20 17:17:00,
2013-04-20 12:20:00,40.9,24.1,30.25,ENE,76,4.0,6.0,51,0.00,,,0.00,916,Wunderground v.1.15,2013-04-20 17:20:00,
2013-04-20 12:23:00,41.1,27.0,30.25,East,79,6.0,6.0,57,0.00,,,0.00,916,Wunderground v.1.15,2013-04-20 17:23:00,
2013-04-20 12:26:00,41.0,25.2,30.25,ENE,59,2.0,7.0,53,0.00,,,0.00,923,Wunderground v.1.15,2013-04-20 17:26:00,
2013-04-20 12:28:00,40.9,26.0,30.25,ESE,123,5.0,7.0,55,0.00,,,0.00,925,Wunderground v.1.15,2013-04-20 17:28:00,
2013-04-20 12:29:00,40.8,25.0,30.25,SE,138,2.0,7.0,53,0.00,,,0.00,925,Wunderground v.1.15,2013-04-20 17:29:00,
2013-04-20 12:32:00,40.8,26.3,30.25,South,169,3.0,3.0,56,0.00,,,0.00,926,Wunderground v.1.15,2013-04-20 17:32:00,
2013-04-20 12:34:00,41.2,26.7,30.25,SW,216,3.0,4.0,56,0.00,,,0.00,926,Wunderground v.1.15,2013-04-20 17:34:00,
2013-04-20 12:35:00,41.3,27.6,30.25,SSW,202,3.0,4.0,58,0.00,,,0.00,926,Wunderground v.1.15,2013-04-20 17:35:00,
2013-04-20 12:38:00,41.9,27.3,30.25,SW,219,6.0,7.0,56,0.00,,,0.00,933,Wunderground v.1.15,2013-04-20 17:38:00,
2013-04-20 12:40:00,41.7,25.8,30.25,South,186,1.0,7.0,53,0.00,,,0.00,930,Wunderground v.1.15,2013-04-20 17:40:00,
2013-04-20 12:41:00,41.7,27.1,30.24,SE,144,4.0,7.0,56,0.00,,,0.00,935,Wunderground v.1.15,2013-04-20 17:41:00,
2013-04-20 12:43:00,41.8,28.1,30.24,SSE,155,5.0,7.0,58,0.00,,,0.00,937,Wunderground v.1.15,2013-04-20 17:43:00,
2013-04-20 12:45:00,42.0,26.1,30.24,South,184,4.0,7.0,53,0.00,,,0.00,937,Wunderground v.1.15,2013-04-20 17:45:00,
2013-04-20 12:46:00,41.9,26.4,30.24,SSW,200,3.0,7.0,54,0.00,,,0.00,937,Wunderground v.1.15,2013-04-20 17:46:00,
2013-04-20 12:47:00,41.9,26.9,30.24,SSE,157,4.0,7.0,55,0.00,,,0.00,937,Wunderground v.1.15,2013-04-20 17:47:00,
2013-04-20 12:48:00,41.8,26.8,30.24,South,173,4.0,7.0,55,0.00,,,0.00,939,Wunderground v.1.15,2013-04-20 17:48:00,
2013-04-20 12:49:00,41.8,27.7,30.24,SSE,162,3.0,7.0,57,0.00,,,0.00,939,Wunderground v.1.15,2013-04-20 17:49:00,
2013-04-20 12:50:00,41.8,26.8,30.24,SSW,194,5.0,5.0,55,0.00,,,0.00,937,Wunderground v.1.15,2013-04-20 17:50:00,
2013-04-20 12:51:00,41.9,26.4,30.24,SSW,207,4.0,5.0,54,0.00,,,0.00,937,Wunderground v.1.15,2013-04-20 17:51:00,
2013-04-20 12:54:00,42.3,27.7,30.24,SW,215,7.0,7.0,56,0.00,,,0.00,944,Wunderground v.1.15,2013-04-20 17:54:00,
2013-04-20 12:55:00,42.4,26.0,30.24,SSW,207,7.0,12.0,52,0.00,,,0.00,944,Wunderground v.1.15,2013-04-20 17:55:00,
2013-04-20 12:58:00,42.3,26.4,30.24,South,188,0.0,12.0,53,0.00,,,0.00,942,Wunderground v.1.15,2013-04-20 17:58:00,
2013-04-20 13:00:00,42.6,28.0,30.24,ESE,108,4.0,4.0,56,0.00,,,0.00,944,Wunderground v.1.15,2013-04-20 18:00:00,
2013-04-20 13:01:00,42.8,28.2,30.24,ENE,71,7.0,7.0,56,0.00,,,0.00,944,Wunderground v.1.15,2013-04-20 18:01:00,
2013-04-20 13:02:00,43.0,25.1,30.24,ENE,75,4.0,7.0,49,0.00,,,0.00,939,Wunderground v.1.15,2013-04-20 18:02:00,
2013-04-20 13:05:00,42.5,26.6,30.24,ENE,74,3.0,7.0,53,0.00,,,0.00,947,Wunderground v.1.15,2013-04-20 18:05:00,
2013-04-20 13:06:00,42.4,25.5,30.24,ENE,74,2.0,7.0,51,0.00,,,0.00,944,Wunderground v.1.15,2013-04-20 18:06:00,
2013-04-20 13:07:00,42.3,25.4,30.24,ENE,74,0.0,7.0,51,0.00,,,0.00,940,Wunderground v.1.15,2013-04-20 18:07:00,
2013-04-20 13:08:00,42.1,25.7,30.24,ENE,74,0.0,7.0,52,0.00,,,0.00,939,Wunderground v.1.15,2013-04-20 18:08:00,
2013-04-20 13:10:00,42.9,28.7,30.24,ENE,74,3.0,3.0,57,0.00,,,0.00,935,Wunderground v.1.15,2013-04-20 18:10:00,
2013-04-20 13:12:00,43.0,26.1,30.24,ESE,104,0.0,3.0,51,0.00,,,0.00,940,Wunderground v.1.15,2013-04-20 18:12:00,
2013-04-20 13:13:00,43.1,27.6,30.24,ESE,104,0.0,3.0,54,0.00,,,0.00,940,Wunderground v.1.15,2013-04-20 18:13:00,
2013-04-20 13:14:00,43.6,30.2,30.24,ESE,105,1.0,3.0,59,0.00,,,0.00,944,Wunderground v.1.15,2013-04-20 18:14:00,
2013-04-20 13:18:00,44.0,28.0,30.24,SSW,195,3.0,3.0,53,0.00,,,0.00,954,Wunderground v.1.15,2013-04-20 18:18:00,
2013-04-20 13:19:00,44.0,28.9,30.24,South,186,0.0,3.0,55,0.00,,,0.00,951,Wunderground v.1.15,2013-04-20 18:19:00,
2013-04-20 13:20:00,44.1,29.4,30.24,West,269,5.0,5.0,56,0.00,,,0.00,951,Wunderground v.1.15,2013-04-20 18:20:00,
2013-04-20 13:24:00,44.1,28.5,30.24,South,169,5.0,6.0,54,0.00,,,0.00,949,Wunderground v.1.15,2013-04-20 18:24:00,
2013-04-20 13:26:00,44.1,28.5,30.24,SSE,167,5.0,8.0,54,0.00,,,0.00,947,Wunderground v.1.15,2013-04-20 18:26:00,
2013-04-20 13:27:00,44.1,28.9,30.24,ESE,108,5.0,8.0,55,0.00,,,0.00,956,Wunderground v.1.15,2013-04-20 18:27:00,
2013-04-20 13:30:00,43.8,28.7,30.24,SSW,211,2.0,4.0,55,0.00,,,0.00,954,Wunderground v.1.15,2013-04-20 18:30:00,
2013-04-20 13:31:00,43.9,29.2,30.24,South,182,4.0,5.0,56,0.00,,,0.00,954,Wunderground v.1.15,2013-04-20 18:31:00,
2013-04-20 13:32:00,44.1,28.5,30.24,SE,142,3.0,8.0,54,0.00,,,0.00,954,Wunderground v.1.15,2013-04-20 18:32:00,
2013-04-20 13:34:00,44.1,28.5,30.24,South,180,4.0,8.0,54,0.00,,,0.00,953,Wunderground v.1.15,2013-04-20 18:34:00,
2013-04-20 13:37:00,44.7,32.5,30.24,ESE,119,7.0,9.0,62,0.00,,,0.00,942,Wunderground v.1.15,2013-04-20 18:37:00,
2013-04-20 13:39:00,43.9,25.5,30.24,SSE,153,0.0,9.0,48,0.00,,,0.00,937,Wunderground v.1.15,2013-04-20 18:39:00,
2013-04-20 13:42:00,43.8,26.3,30.23,NE,51,0.0,8.0,50,0.00,,,0.00,949,Wunderground v.1.15,2013-04-20 18:42:00,
2013-04-20 13:43:00,44.1,29.4,30.23,NE,51,0.0,8.0,56,0.00,,,0.00,949,Wunderground v.1.15,2013-04-20 18:43:00,
2013-04-20 13:45:00,45.1,27.6,30.23,East,96,2.0,8.0,50,0.00,,,0.00,949,Wunderground v.1.15,2013-04-20 18:45:00,
2013-04-20 13:47:00,44.8,27.3,30.23,East,93,5.0,8.0,50,0.00,,,0.00,951,Wunderground v.1.15,2013-04-20 18:47:00,
2013-04-20 13:48:00,44.7,27.2,30.23,ENE,74,4.0,8.0,50,0.00,,,0.00,953,Wunderground v.1.15,2013-04-20 18:48:00,
2013-04-20 13:49:00,44.6,27.6,30.23,ENE,61,4.0,8.0,51,0.00,,,0.00,954,Wunderground v.1.15,2013-04-20 18:49:00,
2013-04-20 13:51:00,44.5,27.0,30.23,East,96,5.0,5.0,50,0.00,,,0.00,935,Wunderground v.1.15,2013-04-20 18:51:00,
2013-04-20 13:53:00,44.8,26.8,30.23,ENE,59,1.0,7.0,49,0.00,,,0.00,925,Wunderground v.1.15,2013-04-20 18:53:00,
2013-04-20 13:54:00,44.9,28.3,30.23,ENE,59,0.0,7.0,52,0.00,,,0.00,944,Wunderground v.1.15,2013-04-20 18:54:00,
2013-04-20 13:55:00,45.0,27.9,30.23,ESE,106,3.0,7.0,51,0.00,,,0.00,933,Wunderground v.1.15,2013-04-20 18:55:00,
2013-04-20 13:57:00,44.8,28.2,30.23,South,183,5.0,7.0,52,0.00,,,0.00,949,Wunderground v.1.15,2013-04-20 18:57:00,
2013-04-20 13:58:00,45.0,29.3,30.23,SSE,161,5.0,7.0,54,0.00,,,0.00,967,Wunderground v.1.15,2013-04-20 18:58:00,
2013-04-20 13:59:00,44.9,26.9,30.23,South,172,3.0,7.0,49,0.00,,,0.00,962,Wunderground v.1.15,2013-04-20 18:59:00,
2013-04-20 14:02:00,44.0,25.0,30.23,ESE,117,0.0,3.0,47,0.00,,,0.00,826,Wunderground v.1.15,2013-04-20 19:02:00,
2013-04-20 14:04:00,44.0,25.0,30.23,ESE,117,0.0,3.0,47,0.00,,,0.00,870,Wunderground v.1.15,2013-04-20 19:04:00,
2013-04-20 14:05:00,44.5,26.5,30.23,East,82,2.0,6.0,49,0.00,,,0.00,1020,Wunderground v.1.15,2013-04-20 19:05:00,
2013-04-20 14:07:00,45.1,27.6,30.22,ENE,68,0.0,6.0,50,0.00,,,0.00,1011,Wunderground v.1.15,2013-04-20 19:07:00,
2013-04-20 14:08:00,45.2,26.7,30.22,ENE,68,0.0,6.0,48,0.00,,,0.00,1041,Wunderground v.1.15,2013-04-20 19:08:00,
2013-04-20 14:10:00,45.4,25.8,30.22,NE,39,4.0,4.0,46,0.00,,,0.00,939,Wunderground v.1.15,2013-04-20 19:10:00,
2013-04-20 14:12:00,45.7,28.1,30.22,SE,129,7.0,9.0,50,0.00,,,0.00,939,Wunderground v.1.15,2013-04-20 19:12:00,
2013-04-20 14:13:00,45.4,25.8,30.22,ESE,109,5.0,9.0,46,0.00,,,0.00,527,Wunderground v.1.15,2013-04-20 19:13:00,
2013-04-20 14:16:00,44.5,24.5,30.22,ESE,111,2.0,9.0,45,0.00,,,0.00,584,Wunderground v.1.15,2013-04-20 19:16:00,
2013-04-20 14:17:00,44.2,25.2,30.22,South,182,5.0,9.0,47,0.00,,,0.00,619,Wunderground v.1.15,2013-04-20 19:17:00,
2013-04-20 14:18:00,44.3,26.3,30.22,South,173,2.0,9.0,49,0.00,,,0.00,599,Wunderground v.1.15,2013-04-20 19:18:00,
2013-04-20 14:21:00,44.9,25.9,30.22,SE,131,5.0,5.0,47,0.00,,,0.00,728,Wunderground v.1.15,2013-04-20 19:21:00,
2013-04-20 14:22:00,45.3,26.2,30.23,East,90,6.0,7.0,47,0.00,,,0.00,701,Wunderground v.1.15,2013-04-20 19:22:00,
2013-04-20 14:23:00,45.4,26.3,30.22,ENE,72,4.0,7.0,47,0.00,,,0.00,701,Wunderground v.1.15,2013-04-20 19:23:00,
2013-04-20 14:24:00,45.4,25.3,30.22,East,92,8.0,8.0,45,0.00,,,0.00,772,Wunderground v.1.15,2013-04-20 19:24:00,
2013-04-20 14:28:00,45.9,25.7,30.22,East,93,2.0,8.0,45,0.00,,,0.00,772,Wunderground v.1.15,2013-04-20 19:28:00,
2013-04-20 14:29:00,46.1,25.9,30.22,SE,128,6.0,8.0,45,0.00,,,0.00,772,Wunderground v.1.15,2013-04-20 19:29:00,
2013-04-20 14:30:00,46.1,25.4,30.22,SE,134,1.0,8.0,44,0.00,,,0.00,772,Wunderground v.1.15,2013-04-20 19:30:00,
2013-04-20 14:31:00,45.4,23.6,30.22,ESE,119,3.0,5.0,42,0.00,,,0.00,772,Wunderground v.1.15,2013-04-20 19:31:00,
2013-04-20 14:35:00,45.2,26.1,30.22,SE,140,5.0,6.0,47,0.00,,,0.00,661,Wunderground v.1.15,2013-04-20 19:35:00,
2013-04-20 14:37:00,45.1,25.5,30.22,SE,146,2.0,6.0,46,0.00,,,0.00,981,Wunderground v.1.15,2013-04-20 19:37:00,
2013-04-20 14:41:00,44.8,24.7,30.22,SSE,150,2.0,5.0,45,0.00,,,0.00,454,Wunderground v.1.15,2013-04-20 19:41:00,
2013-04-20 14:42:00,44.6,25.6,30.21,SSE,158,0.0,5.0,47,0.00,,,0.00,524,Wunderground v.1.15,2013-04-20 19:42:00,
2013-04-20 14:43:00,44.6,25.1,30.21,SSE,149,4.0,5.0,46,0.00,,,0.00,524,Wunderground v.1.15,2013-04-20 19:43:00,
2013-04-20 14:46:00,44.9,27.8,30.21,East,81,3.0,9.0,51,0.00,,,0.00,621,Wunderground v.1.15,2013-04-20 19:46:00,
2013-04-20 14:47:00,44.8,27.3,30.21,East,84,1.0,9.0,50,0.00,,,0.00,557,Wunderground v.1.15,2013-04-20 19:47:00,
2013-04-20 14:48:00,45.1,29.0,30.21,SE,138,6.0,9.0,53,0.00,,,0.00,599,Wunderground v.1.15,2013-04-20 19:48:00,
2013-04-20 14:49:00,45.3,28.2,30.21,SSE,151,6.0,9.0,51,0.00,,,0.00,696,Wunderground v.1.15,2013-04-20 19:49:00,
2013-04-20 14:52:00,46.0,30.7,30.21,SE,146,10.0,10.0,55,0.00,,,0.00,705,Wunderground v.1.15,2013-04-20 19:52:00,
2013-04-20 14:54:00,46.3,30.1,30.21,SSE,167,5.0,10.0,53,0.00,,,0.00,745,Wunderground v.1.15,2013-04-20 19:54:00,
2013-04-20 14:55:00,46.3,30.5,30.21,ESE,119,9.0,10.0,54,0.00,,,0.00,745,Wunderground v.1.15,2013-04-20 19:55:00,
2013-04-20 14:56:00,46.1,29.0,30.21,SE,139,10.0,10.0,51,0.00,,,0.00,705,Wunderground v.1.15,2013-04-20 19:56:00,
2013-04-20 15:00:00,46.2,28.1,30.21,SE,133,5.0,8.0,49,0.00,,,0.00,738,Wunderground v.1.15,2013-04-20 20:00:00,
2013-04-20 15:01:00,46.1,28.0,30.21,ESE,116,5.0,8.0,49,0.00,,,0.00,738,Wunderground v.1.15,2013-04-20 20:01:00,
2013-04-20 15:02:00,45.9,28.3,30.21,SE,136,6.0,8.0,50,0.00,,,0.00,738,Wunderground v.1.15,2013-04-20 20:02:00,
2013-04-20 15:06:00,45.7,26.6,30.20,South,187,3.0,8.0,47,0.00,,,0.00,731,Wunderground v.1.15,2013-04-20 20:06:00,
2013-04-20 15:07:00,45.7,28.1,30.21,SE,137,5.0,8.0,50,0.00,,,0.00,793,Wunderground v.1.15,2013-04-20 20:07:00,
2013-04-20 15:08:00,45.7,28.1,30.21,SSE,149,4.0,8.0,50,0.00,,,0.00,793,Wunderground v.1.15,2013-04-20 20:08:00,
2013-04-20 15:10:00,45.5,26.9,30.20,SSW,204,1.0,8.0,48,0.00,,,0.00,438,Wunderground v.1.15,2013-04-20 20:10:00,
2013-04-20 15:11:00,45.4,27.8,30.20,SSE,156,11.0,11.0,50,0.00,,,0.00,422,Wunderground v.1.15,2013-04-20 20:11:00,
2013-04-20 15:13:00,45.9,28.8,30.21,SE,140,4.0,11.0,51,0.00,,,0.00,413,Wunderground v.1.15,2013-04-20 20:13:00,
2013-04-20 15:14:00,45.9,28.8,30.21,SE,144,7.0,11.0,51,0.00,,,0.00,406,Wunderground v.1.15,2013-04-20 20:14:00,
2013-04-20 15:16:00,46.1,28.5,30.21,East,92,6.0,11.0,50,0.00,,,0.00,399,Wunderground v.1.15,2013-04-20 20:16:00,
2013-04-20 15:17:00,46.1,28.0,30.21,SE,127,4.0,11.0,49,0.00,,,0.00,408,Wunderground v.1.15,2013-04-20 20:17:00,
2013-04-20 15:19:00,46.2,29.1,30.21,ENE,64,4.0,11.0,51,0.00,,,0.00,429,Wunderground v.1.15,2013-04-20 20:19:00,
2013-04-20 15:20:00,46.3,28.7,30.20,East,93,3.0,11.0,50,0.00,,,0.00,429,Wunderground v.1.15,2013-04-20 20:20:00,
2013-04-20 15:21:00,46.0,26.9,30.20,East,94,1.0,5.0,47,0.00,,,0.00,541,Wunderground v.1.15,2013-04-20 20:21:00,
2013-04-20 15:22:00,46.0,26.9,30.20,SE,137,5.0,5.0,47,0.00,,,0.00,563,Wunderground v.1.15,2013-04-20 20:22:00,
2013-04-20 15:24:00,46.6,29.9,30.20,SSE,150,2.0,7.0,52,0.00,,,0.00,563,Wunderground v.1.15,2013-04-20 20:24:00,
2013-04-20 15:27:00,46.8,28.6,30.20,SE,131,2.0,7.0,49,0.00,,,0.00,714,Wunderground v.1.15,2013-04-20 20:27:00,
2013-04-20 15:28:00,46.9,29.2,30.20,ESE,106,2.0,7.0,50,0.00,,,0.00,675,Wunderground v.1.15,2013-04-20 20:28:00,
2013-04-20 15:32:00,47.0,28.8,30.20,SSE,147,8.0,8.0,49,0.00,,,0.00,657,Wunderground v.1.15,2013-04-20 20:32:00,
2013-04-20 15:33:00,46.9,27.2,30.20,SSE,148,6.0,8.0,46,0.00,,,0.00,582,Wunderground v.1.15,2013-04-20 20:33:00,
2013-04-20 15:34:00,46.9,28.2,30.20,ESE,123,8.0,8.0,48,0.00,,,0.00,615,Wunderground v.1.15,2013-04-20 20:34:00,
2013-04-20 15:36:00,46.5,28.8,30.20,SSE,150,2.0,8.0,50,0.00,,,0.00,598,Wunderground v.1.15,2013-04-20 20:36:00,
2013-04-20 15:38:00,46.5,29.3,30.20,South,181,4.0,8.0,51,0.00,,,0.00,522,Wunderground v.1.15,2013-04-20 20:38:00,
2013-04-20 15:39:00,46.7,29.0,30.20,SSE,167,7.0,8.0,50,0.00,,,0.00,664,Wunderground v.1.15,2013-04-20 20:39:00,
2013-04-20 15:41:00,46.5,27.3,30.20,SSE,167,6.0,6.0,47,0.00,,,0.00,570,Wunderground v.1.15,2013-04-20 20:41:00,
2013-04-20 15:43:00,46.4,28.8,30.20,South,174,5.0,8.0,50,0.00,,,0.00,415,Wunderground v.1.15,2013-04-20 20:43:00,
2013-04-20 15:45:00,46.6,30.4,30.20,ESE,123,5.0,8.0,53,0.00,,,0.00,461,Wunderground v.1.15,2013-04-20 20:45:00,
2013-04-20 15:47:00,46.6,27.9,30.21,ESE,107,4.0,9.0,48,0.00,,,0.00,668,Wunderground v.1.15,2013-04-20 20:47:00,
2013-04-20 15:48:00,46.4,27.8,30.21,SE,142,0.0,9.0,48,0.00,,,0.00,668,Wunderground v.1.15,2013-04-20 20:48:00,
2013-04-20 15:49:00,46.4,26.7,30.20,SE,142,0.0,9.0,46,0.00,,,0.00,527,Wunderground v.1.15,2013-04-20 20:49:00,
2013-04-20 15:50:00,46.4,27.2,30.21,SSE,155,8.0,8.0,47,0.00,,,0.00,578,Wunderground v.1.15,2013-04-20 20:50:00,
2013-04-20 15:53:00,46.7,28.0,30.20,SSE,157,6.0,9.0,48,0.00,,,0.00,504,Wunderground v.1.15,2013-04-20 20:53:00,
2013-04-20 15:54:00,46.8,28.6,30.20,SE,128,6.0,12.0,49,0.00,,,0.00,485,Wunderground v.1.15,2013-04-20 20:54:00,
2013-04-20 15:55:00,46.8,27.6,30.20,ESE,122,9.0,12.0,47,0.00,,,0.00,554,Wunderground v.1.15,2013-04-20 20:55:00,
2013-04-20 15:59:00,46.8,26.0,30.20,SSE,165,6.0,12.0,44,0.00,,,0.00,534,Wunderground v.1.15,2013-04-20 20:59:00,
2013-04-20 16:01:00,46.7,25.4,30.21,SSE,155,5.0,6.0,43,0.00,,,0.00,531,Wunderground v.1.15,2013-04-20 21:01:00,
2013-04-20 16:05:00,46.0,23.6,30.20,SSE,155,0.0,6.0,41,0.00,,,0.00,497,Wunderground v.1.15,2013-04-20 21:05:00,
2013-04-20 16:07:00,46.0,24.2,30.20,SE,144,3.0,6.0,42,0.00,,,0.00,469,Wunderground v.1.15,2013-04-20 21:07:00,
2013-04-20 16:08:00,46.0,24.2,30.20,SSE,159,2.0,6.0,42,0.00,,,0.00,417,Wunderground v.1.15,2013-04-20 21:08:00,
2013-04-20 16:09:00,46.2,26.0,30.20,SSE,155,2.0,6.0,45,0.00,,,0.00,422,Wunderground v.1.15,2013-04-20 21:09:00,
2013-04-20 16:12:00,46.5,25.7,30.20,ESE,123,7.0,7.0,44,0.00,,,0.00,438,Wunderground v.1.15,2013-04-20 21:12:00,
2013-04-20 16:13:00,46.6,26.4,30.20,ESE,119,8.0,8.0,45,0.00,,,0.00,431,Wunderground v.1.15,2013-04-20 21:13:00,
2013-04-20 16:14:00,46.7,25.4,30.20,East,90,6.0,8.0,43,0.00,,,0.00,490,Wunderground v.1.15,2013-04-20 21:14:00,
2013-04-20 16:15:00,46.6,24.7,30.20,ENE,63,3.0,8.0,42,0.00,,,0.00,492,Wunderground v.1.15,2013-04-20 21:15:00,
2013-04-20 16:17:00,46.7,27.0,30.20,East,85,7.0,8.0,46,0.00,,,0.00,538,Wunderground v.1.15,2013-04-20 21:17:00,
2013-04-20 16:18:00,46.7,27.0,30.20,East,89,6.0,8.0,46,0.00,,,0.00,517,Wunderground v.1.15,2013-04-20 21:18:00,
2013-04-20 16:19:00,46.8,26.0,30.20,East,85,7.0,9.0,44,0.00,,,0.00,501,Wunderground v.1.15,2013-04-20 21:19:00,
2013-04-20 16:21:00,46.8,24.9,30.20,East,79,5.0,6.0,42,0.00,,,0.00,494,Wunderground v.1.15,2013-04-20 21:21:00,
2013-04-20 16:22:00,46.7,24.2,30.20,East,90,2.0,9.0,41,0.00,,,0.00,482,Wunderground v.1.15,2013-04-20 21:22:00,
2013-04-20 16:23:00,46.6,22.9,30.20,East,90,2.0,9.0,39,0.00,,,0.00,482,Wunderground v.1.15,2013-04-20 21:23:00,
2013-04-20 16:26:00,46.2,25.5,30.20,ESE,113,4.0,9.0,44,0.00,,,0.00,457,Wunderground v.1.15,2013-04-20 21:26:00,
2013-04-20 16:27:00,46.5,25.7,30.20,ESE,117,5.0,9.0,44,0.00,,,0.00,459,Wunderground v.1.15,2013-04-20 21:27:00,
2013-04-20 16:28:00,46.9,25.5,30.20,SE,139,6.0,9.0,43,0.00,,,0.00,471,Wunderground v.1.15,2013-04-20 21:28:00,
2013-04-20 16:29:00,47.0,25.6,30.20,SSE,150,5.0,9.0,43,0.00,,,0.00,471,Wunderground v.1.15,2013-04-20 21:29:00,
2013-04-20 16:32:00,47.0,25.1,30.20,SSE,162,4.0,6.0,42,0.00,,,0.00,475,Wunderground v.1.15,2013-04-20 21:32:00,
2013-04-20 16:33:00,47.1,25.7,30.20,SE,136,4.0,6.0,43,0.00,,,0.00,468,Wunderground v.1.15,2013-04-20 21:33:00,
2013-04-20 16:34:00,47.1,23.4,30.20,SSE,152,4.0,6.0,39,0.00,,,0.00,459,Wunderground v.1.15,2013-04-20 21:34:00,
2013-04-20 16:35:00,47.0,23.9,30.20,SE,146,3.0,6.0,40,0.00,,,0.00,459,Wunderground v.1.15,2013-04-20 21:35:00,
2013-04-20 16:38:00,47.3,24.8,30.20,SE,135,5.0,10.0,41,0.00,,,0.00,445,Wunderground v.1.15,2013-04-20 21:38:00,
2013-04-20 16:40:00,47.8,24.6,30.20,ESE,107,5.0,10.0,40,0.00,,,0.00,436,Wunderground v.1.15,2013-04-20 21:40:00,
2013-04-20 16:41:00,47.8,24.6,30.19,ENE,66,5.0,5.0,40,0.00,,,0.00,411,Wunderground v.1.15,2013-04-20 21:41:00,
2013-04-20 16:44:00,47.5,23.7,30.19,ENE,72,5.0,8.0,39,0.00,,,0.00,387,Wunderground v.1.15,2013-04-20 21:44:00,
2013-04-20 16:45:00,47.4,23.7,30.19,East,84,3.0,8.0,39,0.00,,,0.00,383,Wunderground v.1.15,2013-04-20 21:45:00,
2013-04-20 16:46:00,47.2,22.9,30.19,East,101,3.0,8.0,38,0.00,,,0.00,378,Wunderground v.1.15,2013-04-20 21:46:00,
2013-04-20 16:47:00,47.3,23.6,30.19,SSE,159,5.0,8.0,39,0.00,,,0.00,364,Wunderground v.1.15,2013-04-20 21:47:00,
2013-04-20 16:49:00,47.3,24.2,30.19,SSE,163,5.0,8.0,40,0.00,,,0.00,350,Wunderground v.1.15,2013-04-20 21:49:00,
2013-04-20 16:50:00,47.3,25.3,30.19,SSE,150,7.0,7.0,42,0.00,,,0.00,350,Wunderground v.1.15,2013-04-20 21:50:00,
2013-04-20 16:52:00,47.5,26.1,30.19,SE,137,4.0,8.0,43,0.00,,,0.00,325,Wunderground v.1.15,2013-04-20 21:52:00,
2013-04-20 16:54:00,47.5,26.1,30.19,ESE,111,9.0,9.0,43,0.00,,,0.00,313,Wunderground v.1.15,2013-04-20 21:54:00,
2013-04-20 16:56:00,47.3,25.3,30.19,East,99,11.0,11.0,42,0.00,,,0.00,304,Wunderground v.1.15,2013-04-20 21:56:00,
2013-04-20 16:57:00,47.2,25.8,30.19,East,84,3.0,11.0,43,0.00,,,0.00,301,Wunderground v.1.15,2013-04-20 21:57:00,
2013-04-20 17:00:00,47.2,26.9,30.19,SE,134,6.0,6.0,45,0.00,,,0.00,288,Wunderground v.1.15,2013-04-20 22:00:00,
2013-04-20 17:01:00,47.3,27.5,30.19,SE,135,4.0,7.0,46,0.00,,,0.00,283,Wunderground v.1.15,2013-04-20 22:01:00,
2013-04-20 17:02:00,47.2,26.9,30.19,SE,129,6.0,7.0,45,0.00,,,0.00,278,Wunderground v.1.15,2013-04-20 22:02:00,
2013-04-20 17:03:00,47.2,25.8,30.20,SE,135,4.0,7.0,43,0.00,,,0.00,264,Wunderground v.1.15,2013-04-20 22:03:00,
2013-04-20 17:05:00,47.2,26.9,30.19,ESE,117,5.0,7.0,45,0.00,,,0.00,246,Wunderground v.1.15,2013-04-20 22:05:00,
2013-04-20 17:07:00,47.2,25.8,30.20,ESE,104,5.0,11.0,43,0.00,,,0.00,232,Wunderground v.1.15,2013-04-20 22:07:00,
2013-04-20 17:08:00,46.9,25.0,30.19,East,84,3.0,11.0,42,0.00,,,0.00,218,Wunderground v.1.15,2013-04-20 22:08:00,
2013-04-20 17:11:00,47.1,27.4,30.19,SE,126,4.0,6.0,46,0.00,,,0.00,207,Wunderground v.1.15,2013-04-20 22:11:00,
2013-04-20 17:12:00,47.1,27.4,30.19,ESE,121,4.0,6.0,46,0.00,,,0.00,197,Wunderground v.1.15,2013-04-20 22:12:00,
2013-04-20 17:13:00,47.3,27.0,30.19,ESE,109,1.0,6.0,45,0.00,,,0.00,183,Wunderground v.1.15,2013-04-20 22:13:00,
2013-04-20 17:14:00,47.3,27.0,30.19,East,96,9.0,9.0,45,0.00,,,0.00,176,Wunderground v.1.15,2013-04-20 22:14:00,
2013-04-20 17:18:00,47.2,24.1,30.19,ESE,119,2.0,9.0,40,0.00,,,0.00,160,Wunderground v.1.15,2013-04-20 22:18:00,
2013-04-20 17:19:00,47.1,25.7,30.19,SE,127,6.0,9.0,43,0.00,,,0.00,155,Wunderground v.1.15,2013-04-20 22:19:00,
2013-04-20 17:20:00,47.1,25.7,30.19,ESE,123,8.0,9.0,43,0.00,,,0.00,148,Wunderground v.1.15,2013-04-20 22:20:00,
2013-04-20 17:25:00,46.9,24.4,30.19,East,101,8.0,8.0,41,0.00,,,0.00,135,Wunderground v.1.15,2013-04-20 22:25:00,
2013-04-20 17:30:00,46.8,26.0,30.18,ESE,120,5.0,5.0,44,0.00,,,0.00,149,Wunderground v.1.15,2013-04-20 22:30:00,
2013-04-20 17:31:00,46.9,26.1,30.18,East,92,6.0,9.0,44,0.00,,,0.00,158,Wunderground v.1.15,2013-04-20 22:31:00,
2013-04-20 17:35:00,47.1,26.8,30.18,ESE,105,3.0,9.0,45,0.00,,,0.00,167,Wunderground v.1.15,2013-04-20 22:35:00,
2013-04-20 17:36:00,47.1,26.8,30.18,ENE,57,3.0,9.0,45,0.00,,,0.00,169,Wunderground v.1.15,2013-04-20 22:36:00,
2013-04-20 17:37:00,47.1,25.7,30.18,East,82,7.0,9.0,43,0.00,,,0.00,169,Wunderground v.1.15,2013-04-20 22:37:00,
2013-04-20 17:39:00,47.1,26.3,30.17,ESE,103,8.0,11.0,44,0.00,,,0.00,165,Wunderground v.1.15,2013-04-20 22:39:00,
2013-04-20 17:41:00,47.0,25.6,30.17,East,80,7.0,9.0,43,0.00,,,0.00,165,Wunderground v.1.15,2013-04-20 22:41:00,
2013-04-20 17:43:00,47.0,26.2,30.17,ENE,76,11.0,11.0,44,0.00,,,0.00,179,Wunderground v.1.15,2013-04-20 22:43:00,
2013-04-20 17:44:00,47.0,25.1,30.17,East,90,8.0,11.0,42,0.00,,,0.00,179,Wunderground v.1.15,2013-04-20 22:44:00,
2013-04-20 17:46:00,47.0,26.2,30.16,ENE,71,4.0,11.0,44,0.00,,,0.00,197,Wunderground v.1.15,2013-04-20 22:46:00,
2013-04-20 17:49:00,47.0,26.7,30.16,East,82,11.0,11.0,45,0.00,,,0.00,204,Wunderground v.1.15,2013-04-20 22:49:00,
2013-04-20 17:50:00,47.0,25.6,30.16,ENE,65,7.0,11.0,43,0.00,,,0.00,204,Wunderground v.1.15,2013-04-20 22:50:00,
2013-04-20 17:51:00,47.0,25.6,30.16,ESE,103,10.0,13.0,43,0.00,,,0.00,204,Wunderground v.1.15,2013-04-20 22:51:00,
2013-04-20 17:54:00,47.0,25.6,30.16,East,80,11.0,13.0,43,0.00,,,0.00,211,Wunderground v.1.15,2013-04-20 22:54:00,
2013-04-20 17:55:00,47.0,25.6,30.16,East,96,8.0,13.0,43,0.00,,,0.00,211,Wunderground v.1.15,2013-04-20 22:55:00,
2013-04-20 17:56:00,47.0,25.6,30.16,East,94,10.0,13.0,43,0.00,,,0.00,214,Wunderground v.1.15,2013-04-20 22:56:00,
2013-04-20 17:58:00,47.0,25.1,30.16,ESE,113,7.0,13.0,42,0.00,,,0.00,211,Wunderground v.1.15,2013-04-20 22:58:00,
2013-04-20 18:00:00,47.1,26.3,30.16,East,99,5.0,13.0,44,0.00,,,0.00,207,Wunderground v.1.15,2013-04-20 23:00:00,
2013-04-20 18:01:00,47.2,26.4,30.16,East,80,10.0,10.0,44,0.00,,,0.00,202,Wunderground v.1.15,2013-04-20 23:01:00,
2013-04-20 18:03:00,47.2,25.8,30.16,East,82,3.0,10.0,43,0.00,,,0.00,197,Wunderground v.1.15,2013-04-20 23:03:00,
2013-04-20 18:05:00,47.2,25.8,30.16,East,87,11.0,13.0,43,0.00,,,0.00,188,Wunderground v.1.15,2013-04-20 23:05:00,
2013-04-20 18:06:00,47.2,25.8,30.16,East,92,8.0,13.0,43,0.00,,,0.00,188,Wunderground v.1.15,2013-04-20 23:06:00,
2013-04-20 18:07:00,47.1,25.7,30.17,ESE,117,8.0,13.0,43,0.00,,,0.00,178,Wunderground v.1.15,2013-04-20 23:07:00,
2013-04-20 18:09:00,47.0,25.6,30.17,East,86,10.0,13.0,43,0.00,,,0.00,169,Wunderground v.1.15,2013-04-20 23:09:00,
2013-04-20 18:11:00,46.9,26.1,30.17,ESE,109,4.0,7.0,44,0.00,,,0.00,160,Wunderground v.1.15,2013-04-20 23:11:00,
2013-04-20 18:13:00,46.9,25.0,30.17,ENE,77,9.0,9.0,42,0.00,,,0.00,158,Wunderground v.1.15,2013-04-20 23:13:00,
2013-04-20 18:14:00,46.9,25.5,30.17,ENE,78,7.0,9.0,43,0.00,,,0.00,158,Wunderground v.1.15,2013-04-20 23:14:00,
2013-04-20 18:15:00,46.9,25.0,30.17,SE,136,7.0,9.0,42,0.00,,,0.00,155,Wunderground v.1.15,2013-04-20 23:15:00,
2013-04-20 18:16:00,46.9,26.1,30.17,ESE,120,10.0,10.0,44,0.00,,,0.00,153,Wunderground v.1.15,2013-04-20 23:16:00,
2013-04-20 18:19:00,47.0,25.1,30.17,ESE,105,8.0,12.0,42,0.00,,,0.00,149,Wunderground v.1.15,2013-04-20 23:19:00,
2013-04-20 18:20:00,47.0,24.5,30.17,ESE,121,8.0,8.0,41,0.00,,,0.00,148,Wunderground v.1.15,2013-04-20 23:20:00,
2013-04-20 18:21:00,47.0,25.1,30.17,ESE,108,9.0,9.0,42,0.00,,,0.00,148,Wunderground v.1.15,2013-04-20 23:21:00,
2013-04-20 18:22:00,46.9,24.4,30.17,East,81,7.0,11.0,41,0.00,,,0.00,148,Wunderground v.1.15,2013-04-20 23:22:00,
2013-04-20 18:25:00,46.9,25.0,30.17,ESE,121,8.0,12.0,42,0.00,,,0.00,151,Wunderground v.1.15,2013-04-20 23:25:00,
2013-04-20 18:26:00,46.9,24.4,30.17,ESE,112,7.0,12.0,41,0.00,,,0.00,155,Wunderground v.1.15,2013-04-20 23:26:00,
2013-04-20 18:28:00,47.0,25.1,30.17,ESE,105,5.0,12.0,42,0.00,,,0.00,158,Wunderground v.1.15,2013-04-20 23:28:00,
2013-04-20 18:30:00,47.0,25.6,30.17,ESE,108,5.0,8.0,43,0.00,,,0.00,174,Wunderground v.1.15,2013-04-20 23:30:00,
2013-04-20 18:31:00,47.0,26.2,30.17,ESE,110,4.0,8.0,44,0.00,,,0.00,174,Wunderground v.1.15,2013-04-20 23:31:00,
2013-04-20 18:32:00,47.0,25.1,30.17,SE,126,6.0,8.0,42,0.00,,,0.00,176,Wunderground v.1.15,2013-04-20 23:32:00,
2013-04-20 18:33:00,47.0,25.6,30.17,SE,127,9.0,9.0,43,0.00,,,0.00,186,Wunderground v.1.15,2013-04-20 23:33:00,
2013-04-20 18:36:00,47.1,27.4,30.17,SE,130,5.0,10.0,46,0.00,,,0.00,186,Wunderground v.1.15,2013-04-20 23:36:00,
2013-04-20 18:37:00,47.1,26.3,30.17,ESE,119,8.0,10.0,44,0.00,,,0.00,186,Wunderground v.1.15,2013-04-20 23:37:00,
2013-04-20 18:38:00,47.1,26.8,30.17,ESE,114,5.0,11.0,45,0.00,,,0.00,176,Wunderground v.1.15,2013-04-20 23:38:00,
2013-04-20 18:39:00,47.1,26.8,30.17,ESE,112,10.0,11.0,45,0.00,,,0.00,176,Wunderground v.1.15,2013-04-20 23:39:00,
2013-04-20 18:43:00,47.0,26.7,30.17,East,100,8.0,10.0,45,0.00,,,0.00,144,Wunderground v.1.15,2013-04-20 23:43:00,
2013-04-20 18:44:00,46.9,26.6,30.17,SE,136,4.0,10.0,45,0.00,,,0.00,130,Wunderground v.1.15,2013-04-20 23:44:00,
2013-04-20 18:45:00,46.9,26.6,30.17,SE,129,6.0,10.0,45,0.00,,,0.00,125,Wunderground v.1.15,2013-04-20 23:45:00,
2013-04-20 18:49:00,46.7,25.4,30.18,ESE,113,10.0,11.0,43,0.00,,,0.00,104,Wunderground v.1.15,2013-04-20 23:49:00,
2013-04-20 18:50:00,46.7,26.5,30.18,East,100,5.0,8.0,45,0.00,,,0.00,93,Wunderground v.1.15,2013-04-20 23:50:00,
2013-04-20 18:51:00,46.7,26.5,30.18,SE,146,4.0,8.0,45,0.00,,,0.00,90,Wunderground v.1.15,2013-04-20 23:51:00,
2013-04-20 18:55:00,46.6,26.4,30.18,SSE,158,9.0,10.0,45,0.00,,,0.00,79,Wunderground v.1.15,2013-04-20 23:55:00,
2013-04-20 18:56:00,46.6,25.8,30.18,ESE,121,7.0,10.0,44,0.00,,,0.00,74,Wunderground v.1.15,2013-04-20 23:56:00,
2013-04-20 18:57:00,46.6,24.7,30.18,SE,130,6.0,10.0,42,0.00,,,0.00,74,Wunderground v.1.15,2013-04-20 23:57:00,
2013-04-20 19:00:00,46.5,25.2,30.18,SE,135,6.0,10.0,43,0.00,,,0.00,72,Wunderground v.1.15,2013-04-21 00:00:00,
2013-04-20 19:01:00,46.5,25.2,30.18,ESE,119,7.0,7.0,43,0.00,,,0.00,72,Wunderground v.1.15,2013-04-21 00:01:00,
2013-04-20 19:02:00,46.5,24.6,30.18,ESE,115,4.0,8.0,42,0.00,,,0.00,74,Wunderground v.1.15,2013-04-21 00:02:00,
2013-04-20 19:03:00,46.5,24.6,30.18,SE,126,4.0,8.0,42,0.00,,,0.00,72,Wunderground v.1.15,2013-04-21 00:03:00,
2013-04-20 19:06:00,46.5,24.6,30.18,ESE,117,4.0,8.0,42,0.00,,,0.00,62,Wunderground v.1.15,2013-04-21 00:06:00,
2013-04-20 19:07:00,46.5,24.6,30.18,ESE,121,5.0,8.0,42,0.00,,,0.00,62,Wunderground v.1.15,2013-04-21 00:07:00,
2013-04-20 19:08:00,46.5,25.2,30.18,ESE,113,9.0,10.0,43,0.00,,,0.00,60,Wunderground v.1.15,2013-04-21 00:08:00,
2013-04-20 19:10:00,46.5,25.2,30.18,ESE,119,7.0,8.0,43,0.00,,,0.00,60,Wunderground v.1.15,2013-04-21 00:10:00,
2013-04-20 19:12:00,46.4,25.6,30.18,East,82,8.0,8.0,44,0.00,,,0.00,58,Wunderground v.1.15,2013-04-21 00:12:00,
2013-04-20 19:13:00,46.4,25.6,30.18,SE,126,7.0,8.0,44,0.00,,,0.00,58,Wunderground v.1.15,2013-04-21 00:13:00,
2013-04-20 19:14:00,46.4,26.2,30.18,SE,135,6.0,8.0,45,0.00,,,0.00,58,Wunderground v.1.15,2013-04-21 00:14:00,
2013-04-20 19:15:00,46.4,26.7,30.18,ESE,120,9.0,9.0,46,0.00,,,0.00,56,Wunderground v.1.15,2013-04-21 00:15:00,
2013-04-20 19:18:00,46.3,26.6,30.18,ESE,121,4.0,10.0,46,0.00,,,0.00,56,Wunderground v.1.15,2013-04-21 00:18:00,
2013-04-20 19:19:00,46.2,26.5,30.19,SE,128,5.0,10.0,46,0.00,,,0.00,54,Wunderground v.1.15,2013-04-21 00:19:00,
2013-04-20 19:21:00,46.2,27.6,30.18,SE,126,4.0,6.0,48,0.00,,,0.00,53,Wunderground v.1.15,2013-04-21 00:21:00,
2013-04-20 19:23:00,46.2,26.5,30.19,ESE,122,5.0,10.0,46,0.00,,,0.00,49,Wunderground v.1.15,2013-04-21 00:23:00,
2013-04-20 19:24:00,46.1,27.0,30.19,ESE,121,7.0,10.0,47,0.00,,,0.00,47,Wunderground v.1.15,2013-04-21 00:24:00,
2013-04-20 19:25:00,46.2,27.1,30.19,East,96,7.0,10.0,47,0.00,,,0.00,47,Wunderground v.1.15,2013-04-21 00:25:00,
2013-04-20 19:26:00,46.1,28.0,30.19,East,95,6.0,10.0,49,0.00,,,0.00,46,Wunderground v.1.15,2013-04-21 00:26:00,
2013-04-20 19:29:00,46.0,27.4,30.18,ESE,108,4.0,10.0,48,0.00,,,0.00,40,Wunderground v.1.15,2013-04-21 00:29:00,
2013-04-20 19:30:00,46.0,27.9,30.18,East,97,6.0,10.0,49,0.00,,,0.00,40,Wunderground v.1.15,2013-04-21 00:30:00,
2013-04-20 19:31:00,45.9,27.3,30.19,ESE,119,8.0,9.0,48,0.00,,,0.00,39,Wunderground v.1.15,2013-04-21 00:31:00,
2013-04-20 19:35:00,45.8,27.7,30.18,ESE,103,8.0,9.0,49,0.00,,,0.00,32,Wunderground v.1.15,2013-04-21 00:35:00,
2013-04-20 19:37:00,45.8,27.7,30.18,ESE,105,4.0,9.0,49,0.00,,,0.00,32,Wunderground v.1.15,2013-04-21 00:37:00,
2013-04-20 19:38:00,45.7,27.6,30.18,East,96,3.0,9.0,49,0.00,,,0.00,28,Wunderground v.1.15,2013-04-21 00:38:00,
2013-04-20 19:39:00,45.7,27.6,30.18,ESE,105,5.0,9.0,49,0.00,,,0.00,28,Wunderground v.1.15,2013-04-21 00:39:00,
2013-04-20 19:41:00,45.6,28.0,30.19,East,88,6.0,7.0,50,0.00,,,0.00,26,Wunderground v.1.15,2013-04-21 00:41:00,
2013-04-20 19:44:00,45.4,28.3,30.19,SE,143,6.0,7.0,51,0.00,,,0.00,21,Wunderground v.1.15,2013-04-21 00:44:00,
2013-04-20 19:45:00,45.4,28.3,30.19,ESE,119,4.0,7.0,51,0.00,,,0.00,19,Wunderground v.1.15,2013-04-21 00:45:00,
2013-04-20 19:47:00,45.3,27.7,30.19,ESE,112,5.0,8.0,50,0.00,,,0.00,16,Wunderground v.1.15,2013-04-21 00:47:00,
2013-04-20 19:48:00,45.3,27.7,30.19,SE,130,7.0,9.0,50,0.00,,,0.00,16,Wunderground v.1.15,2013-04-21 00:48:00,
2013-04-20 19:50:00,45.3,27.7,30.19,SE,130,6.0,6.0,50,0.00,,,0.00,12,Wunderground v.1.15,2013-04-21 00:50:00,
2013-04-20 19:51:00,45.2,27.6,30.19,ESE,113,8.0,9.0,50,0.00,,,0.00,12,Wunderground v.1.15,2013-04-21 00:51:00,
2013-04-20 19:52:00,45.2,27.6,30.19,ESE,110,4.0,9.0,50,0.00,,,0.00,11,Wunderground v.1.15,2013-04-21 00:52:00,
2013-04-20 19:53:00,45.2,27.6,30.19,ESE,107,4.0,9.0,50,0.00,,,0.00,11,Wunderground v.1.15,2013-04-21 00:53:00,
2013-04-20 19:55:00,45.0,27.5,30.20,ESE,123,5.0,9.0,50,0.00,,,0.00,9,Wunderground v.1.15,2013-04-21 00:55:00,
2013-04-20 19:57:00,45.0,27.0,30.20,ESE,123,7.0,10.0,49,0.00,,,0.00,7,Wunderground v.1.15,2013-04-21 00:57:00,
2013-04-20 19:58:00,45.1,27.6,30.20,ESE,113,7.0,10.0,50,0.00,,,0.00,5,Wunderground v.1.15,2013-04-21 00:58:00,
2013-04-20 19:59:00,45.1,27.6,30.20,SE,128,3.0,10.0,50,0.00,,,0.00,5,Wunderground v.1.15,2013-04-21 00:59:00,
2013-04-20 20:00:00,45.0,27.5,30.20,ESE,116,5.0,6.0,50,0.00,,,0.00,0,Wunderground v.1.15,2013-04-21 01:00:00,
2013-04-20 20:01:00,45.0,27.5,30.20,ESE,107,5.0,6.0,50,0.00,,,0.00,0,Wunderground v.1.15,2013-04-21 01:01:00,
2013-04-20 20:02:00,45.0,27.5,30.20,ESE,110,4.0,7.0,50,0.00,,,0.00,0,Wunderground v.1.15,2013-04-21 01:02:00,
2013-04-20 20:04:00,44.9,27.4,30.20,ESE,114,4.0,7.0,50,0.00,,,0.00,0,Wunderground v.1.15,2013-04-21 01:04:00,
2013-04-20 20:05:00,44.9,27.4,30.20,SE,126,5.0,7.0,50,0.00,,,0.00,0,Wunderground v.1.15,2013-04-21 01:05:00,
2013-04-20 20:08:00,44.8,27.3,30.21,SE,130,6.0,7.0,50,0.00,,,0.00,0,Wunderground v.1.15,2013-04-21 01:08:00,
2013-04-20 20:09:00,44.8,27.8,30.20,SE,127,5.0,8.0,51,0.00,,,0.00,0,Wunderground v.1.15,2013-04-21 01:09:00,
2013-04-20 20:10:00,44.8,27.8,30.20,ESE,121,4.0,5.0,51,0.00,,,0.00,0,Wunderground v.1.15,2013-04-21 01:10:00,
2013-04-20 20:12:00,44.7,27.7,30.21,SE,128,8.0,8.0,51,0.00,,,0.00,0,Wunderground v.1.15,2013-04-21 01:12:00,
2013-04-20 20:14:00,44.6,27.1,30.21,SE,125,5.0,8.0,50,0.00,,,0.00,0,Wunderground v.1.15,2013-04-21 01:14:00,
2013-04-20 20:17:00,44.5,27.5,30.21,ESE,113,5.0,8.0,51,0.00,,,0.00,0,Wunderground v.1.15,2013-04-21 01:17:00,
2013-04-20 20:19:00,44.5,27.5,30.21,ESE,121,5.0,8.0,51,0.00,,,0.00,0,Wunderground v.1.15,2013-04-21 01:19:00,
2013-04-20 20:20:00,44.5,27.5,30.21,ESE,121,4.0,7.0,51,0.00,,,0.00,0,Wunderground v.1.15,2013-04-21 01:20:00,
2013-04-20 20:22:00,44.4,27.4,30.21,ESE,102,5.0,7.0,51,0.00,,,0.00,0,Wunderground v.1.15,2013-04-21 01:22:00,
2013-04-20 20:23:00,44.4,26.9,30.21,ESE,104,4.0,7.0,50,0.00,,,0.00,0,Wunderground v.1.15,2013-04-21 01:23:00,
2013-04-20 20:24:00,44.4,26.9,30.21,ESE,105,4.0,7.0,50,0.00,,,0.00,0,Wunderground v.1.15,2013-04-21 01:24:00,
2013-04-20 20:26:00,44.3,27.3,30.21,ESE,111,3.0,7.0,51,0.00,,,0.00,0,Wunderground v.1.15,2013-04-21 01:26:00,
2013-04-20 20:27:00,44.3,26.8,30.21,ESE,109,4.0,8.0,50,0.00,,,0.00,0,Wunderground v.1.15,2013-04-21 01:27:00,
2013-04-20 20:28:00,44.3,26.8,30.21,SE,130,5.0,8.0,50,0.00,,,0.00,0,Wunderground v.1.15,2013-04-21 01:28:00,
2013-04-20 20:29:00,44.3,26.8,30.21,ESE,105,4.0,8.0,50,0.00,,,0.00,0,Wunderground v.1.15,2013-04-21 01:29:00,
2013-04-20 20:31:00,44.3,26.8,30.21,ESE,107,4.0,8.0,50,0.00,,,0.00,0,Wunderground v.1.15,2013-04-21 01:31:00,
2013-04-20 20:33:00,44.3,27.3,30.22,ESE,118,7.0,8.0,51,0.00,,,0.00,0,Wunderground v.1.15,2013-04-21 01:33:00,
2013-04-20 20:34:00,44.2,27.2,30.21,ESE,116,4.0,8.0,51,0.00,,,0.00,0,Wunderground v.1.15,2013-04-21 01:34:00,
2013-04-20 20:35:00,44.2,27.2,30.22,ESE,112,4.0,8.0,51,0.00,,,0.00,0,Wunderground v.1.15,2013-04-21 01:35:00,
2013-04-20 20:38:00,44.2,27.7,30.21,ESE,118,5.0,8.0,52,0.00,,,0.00,0,Wunderground v.1.15,2013-04-21 01:38:00,
2013-04-20 20:39:00,44.1,27.1,30.21,ESE,111,3.0,8.0,51,0.00,,,0.00,0,Wunderground v.1.15,2013-04-21 01:39:00,
2013-04-20 20:40:00,44.1,27.1,30.21,ESE,106,4.0,6.0,51,0.00,,,0.00,0,Wunderground v.1.15,2013-04-21 01:40:00,
2013-04-20 20:41:00,44.0,27.0,30.21,ESE,107,3.0,6.0,51,0.00,,,0.00,0,Wunderground v.1.15,2013-04-21 01:41:00,
2013-04-20 20:44:00,43.9,26.9,30.21,ESE,117,8.0,10.0,51,0.00,,,0.00,0,Wunderground v.1.15,2013-04-21 01:44:00,
2013-04-20 20:45:00,43.9,26.9,30.21,ESE,111,8.0,10.0,51,0.00,,,0.00,0,Wunderground v.1.15,2013-04-21 01:45:00,
2013-04-20 20:48:00,43.9,26.4,30.21,ESE,122,4.0,10.0,50,0.00,,,0.00,0,Wunderground v.1.15,2013-04-21 01:48:00,
2013-04-20 20:50:00,43.9,26.4,30.21,ESE,113,7.0,7.0,50,0.00,,,0.00,0,Wunderground v.1.15,2013-04-21 01:50:00,
2013-04-20 20:51:00,43.9,26.4,30.21,ESE,114,4.0,7.0,50,0.00,,,0.00,0,Wunderground v.1.15,2013-04-21 01:51:00,
2013-04-20 20:53:00,43.9,25.5,30.21,ESE,113,7.0,9.0,48,0.00,,,0.00,0,Wunderground v.1.15,2013-04-21 01:53:00,
2013-04-20 20:54:00,43.9,26.4,30.21,East,98,5.0,9.0,50,0.00,,,0.00,0,Wunderground v.1.15,2013-04-21 01:54:00,
2013-04-20 20:56:00,43.8,26.3,30.21,ESE,109,5.0,9.0,50,0.00,,,0.00,0,Wunderground v.1.15,2013-04-21 01:56:00,
2013-04-20 20:57:00,43.8,26.3,30.21,ESE,113,5.0,9.0,50,0.00,,,0.00,0,Wunderground v.1.15,2013-04-21 01:57:00,
2013-04-20 21:00:00,43.7,25.8,30.21,ESE,112,8.0,8.0,49,0.00,,,0.00,0,Wunderground v.1.15,2013-04-21 02:00:00,
2013-04-20 21:01:00,43.7,25.8,30.21,ESE,104,4.0,9.0,49,0.00,,,0.00,0,Wunderground v.1.15,2013-04-21 02:01:00,
2013-04-20 21:02:00,43.7,25.8,30.21,ESE,117,3.0,9.0,49,0.00,,,0.00,0,Wunderground v.1.15,2013-04-21 02:02:00,
2013-04-20 21:03:00,43.7,25.8,30.21,ESE,105,4.0,9.0,49,0.00,,,0.00,0,Wunderground v.1.15,2013-04-21 02:03:00,
2013-04-20 21:04:00,43.7,25.8,30.22,ESE,113,4.0,9.0,49,0.00,,,0.00,0,Wunderground v.1.15,2013-04-21 02:04:00,
2013-04-20 21:06:00,43.7,25.3,30.22,SE,128,7.0,9.0,48,0.00,,,0.00,0,Wunderground v.1.15,2013-04-21 02:06:00,
2013-04-20 21:07:00,43.8,25.9,30.22,ESE,103,4.0,9.0,49,0.00,,,0.00,0,Wunderground v.1.15,2013-04-21 02:07:00,
2013-04-20 21:08:00,43.8,26.3,30.22,East,101,7.0,9.0,50,0.00,,,0.00,0,Wunderground v.1.15,2013-04-21 02:08:00,
2013-04-20 21:10:00,43.7,26.3,30.22,ESE,108,7.0,9.0,50,0.00,,,0.00,0,Wunderground v.1.15,2013-04-21 02:10:00,
2013-04-20 21:11:00,43.7,26.3,30.22,ESE,114,7.0,7.0,50,0.00,,,0.00,0,Wunderground v.1.15,2013-04-21 02:11:00,
2013-04-20 21:13:00,43.7,26.3,30.22,SE,129,5.0,7.0,50,0.00,,,0.00,0,Wunderground v.1.15,2013-04-21 02:13:00,
2013-04-20 21:17:00,43.6,26.6,30.22,ESE,121,5.0,8.0,51,0.00,,,0.00,0,Wunderground v.1.15,2013-04-21 02:17:00,
2013-04-20 21:19:00,43.6,26.2,30.23,East,92,5.0,9.0,50,0.00,,,0.00,0,Wunderground v.1.15,2013-04-21 02:19:00,
2013-04-20 21:23:00,43.6,26.6,30.23,ESE,113,8.0,8.0,51,0.00,,,0.00,0,Wunderground v.1.15,2013-04-21 02:23:00,
2013-04-20 21:24:00,43.6,26.2,30.23,ESE,114,8.0,8.0,50,0.00,,,0.00,0,Wunderground v.1.15,2013-04-21 02:24:00,
2013-04-20 21:25:00,43.6,26.6,30.23,ESE,111,7.0,8.0,51,0.00,,,0.00,0,Wunderground v.1.15,2013-04-21 02:25:00,
2013-04-20 21:28:00,43.6,27.1,30.22,ESE,103,8.0,8.0,52,0.00,,,0.00,0,Wunderground v.1.15,2013-04-21 02:28:00,
2013-04-20 21:29:00,43.6,26.6,30.22,ESE,107,4.0,8.0,51,0.00,,,0.00,0,Wunderground v.1.15,2013-04-21 02:29:00,
2013-04-20 21:31:00,43.6,26.6,30.23,ESE,109,4.0,7.0,51,0.00,,,0.00,0,Wunderground v.1.15,2013-04-21 02:31:00,
2013-04-20 21:32:00,43.6,27.1,30.23,SE,136,4.0,7.0,52,0.00,,,0.00,0,Wunderground v.1.15,2013-04-21 02:32:00,
2013-04-20 21:33:00,43.6,27.1,30.23,ESE,121,4.0,7.0,52,0.00,,,0.00,0,Wunderground v.1.15,2013-04-21 02:33:00,
2013-04-20 21:34:00,43.6,27.1,30.23,ESE,114,7.0,7.0,52,0.00,,,0.00,0,Wunderground v.1.15,2013-04-21 02:34:00,
2013-04-20 21:37:00,43.5,27.9,30.22,ESE,113,8.0,8.0,54,0.00,,,0.00,0,Wunderground v.1.15,2013-04-21 02:37:00,
2013-04-20 21:38:00,43.5,27.5,30.22,ESE,105,7.0,8.0,53,0.00,,,0.00,0,Wunderground v.1.15,2013-04-21 02:38:00,
2013-04-20 21:39:00,43.5,27.5,30.22,East,87,7.0,8.0,53,0.00,,,0.00,0,Wunderground v.1.15,2013-04-21 02:39:00,
2013-04-20 21:40:00,43.5,27.5,30.22,ESE,121,8.0,8.0,53,0.00,,,0.00,0,Wunderground v.1.15,2013-04-21 02:40:00,
2013-04-20 21:43:00,43.5,27.9,30.23,ESE,110,2.0,6.0,54,0.00,,,0.00,0,Wunderground v.1.15,2013-04-21 02:43:00,
2013-04-20 21:44:00,43.5,27.9,30.23,ESE,116,5.0,7.0,54,0.00,,,0.00,0,Wunderground v.1.15,2013-04-21 02:44:00,
2013-04-20 21:46:00,43.5,27.9,30.23,ESE,114,5.0,7.0,54,0.00,,,0.00,0,Wunderground v.1.15,2013-04-21 02:46:00,
2013-04-20 21:48:00,43.5,27.9,30.23,ESE,118,3.0,7.0,54,0.00,,,0.00,0,Wunderground v.1.15,2013-04-21 02:48:00,
2013-04-20 21:49:00,43.5,27.9,30.23,East,90,8.0,8.0,54,0.00,,,0.00,0,Wunderground v.1.15,2013-04-21 02:49:00,
2013-04-20 21:50:00,43.5,27.9,30.23,ESE,102,2.0,8.0,54,0.00,,,0.00,0,Wunderground v.1.15,2013-04-21 02:50:00,
2013-04-20 21:52:00,43.5,28.4,30.23,East,86,6.0,8.0,55,0.00,,,0.00,0,Wunderground v.1.15,2013-04-21 02:52:00,
2013-04-20 21:53:00,43.5,28.4,30.23,ESE,102,4.0,8.0,55,0.00,,,0.00,0,Wunderground v.1.15,2013-04-21 02:53:00,
2013-04-20 21:55:00,43.4,28.3,30.22,ESE,110,7.0,8.0,55,0.00,,,0.00,0,Wunderground v.1.15,2013-04-21 02:55:00,
2013-04-20 21:57:00,43.4,28.7,30.22,East,94,7.0,8.0,56,0.00,,,0.00,0,Wunderground v.1.15,2013-04-21 02:57:00,
2013-04-20 21:58:00,43.3,28.6,30.22,East,101,7.0,8.0,56,0.00,,,0.00,0,Wunderground v.1.15,2013-04-21 02:58:00,
2013-04-20 21:59:00,43.3,28.6,30.22,ESE,121,5.0,8.0,56,0.00,,,0.00,0,Wunderground v.1.15,2013-04-21 02:59:00,
2013-04-20 22:00:00,43.3,29.1,30.22,East,98,5.0,6.0,57,0.00,,,0.00,0,Wunderground v.1.15,2013-04-21 03:00:00,
2013-04-20 22:02:00,43.3,29.1,30.22,ESE,121,7.0,8.0,57,0.00,,,0.00,0,Wunderground v.1.15,2013-04-21 03:02:00,
2013-04-20 22:04:00,43.3,29.1,30.21,ESE,105,5.0,9.0,57,0.00,,,0.00,0,Wunderground v.1.15,2013-04-21 03:04:00,
2013-04-20 22:05:00,43.3,29.1,30.21,East,91,7.0,9.0,57,0.00,,,0.00,0,Wunderground v.1.15,2013-04-21 03:05:00,
2013-04-20 22:07:00,43.3,29.1,30.20,ESE,105,7.0,10.0,57,0.00,,,0.00,0,Wunderground v.1.15,2013-04-21 03:07:00,
2013-04-20 22:09:00,43.3,29.1,30.20,East,98,13.0,13.0,57,0.00,,,0.00,0,Wunderground v.1.15,2013-04-21 03:09:00,
2013-04-20 22:10:00,43.3,29.1,30.20,East,92,9.0,9.0,57,0.00,,,0.00,0,Wunderground v.1.15,2013-04-21 03:10:00,
2013-04-20 22:12:00,43.4,29.2,30.20,ESE,119,7.0,12.0,57,0.00,,,0.00,0,Wunderground v.1.15,2013-04-21 03:12:00,
2013-04-20 22:14:00,43.4,29.2,30.20,ESE,121,10.0,12.0,57,0.00,,,0.00,0,Wunderground v.1.15,2013-04-21 03:14:00,
2013-04-20 22:15:00,43.4,29.2,30.20,ESE,117,10.0,14.0,57,0.00,,,0.00,0,Wunderground v.1.15,2013-04-21 03:15:00,
2013-04-20 22:18:00,43.5,29.3,30.21,ESE,123,13.0,14.0,57,0.00,,,0.00,0,Wunderground v.1.15,2013-04-21 03:18:00,
2013-04-20 22:19:00,43.5,29.3,30.21,ESE,116,10.0,14.0,57,0.00,,,0.00,0,Wunderground v.1.15,2013-04-21 03:19:00,
2013-04-20 22:20:00,43.5,28.8,30.21,ESE,112,7.0,14.0,56,0.00,,,0.00,0,Wunderground v.1.15,2013-04-21 03:20:00,
2013-04-20 22:21:00,43.5,28.8,30.21,SE,132,6.0,13.0,56,0.00,,,0.00,0,Wunderground v.1.15,2013-04-21 03:21:00,
2013-04-20 22:23:00,43.6,28.9,30.22,SE,124,5.0,13.0,56,0.00,,,0.00,0,Wunderground v.1.15,2013-04-21 03:23:00,
2013-04-20 22:24:00,43.6,28.9,30.22,SE,129,6.0,13.0,56,0.00,,,0.00,0,Wunderground v.1.15,2013-04-21 03:24:00,
2013-04-20 22:26:00,43.5,28.8,30.22,ESE,115,5.0,13.0,56,0.00,,,0.00,0,Wunderground v.1.15,2013-04-21 03:26:00,
2013-04-20 22:27:00,43.5,28.8,30.22,ESE,121,5.0,13.0,56,0.00,,,0.00,0,Wunderground v.1.15,2013-04-21 03:27:00,
2013-04-20 22:29:00,43.4,28.7,30.22,ESE,106,10.0,13.0,56,0.00,,,0.00,0,Wunderground v.1.15,2013-04-21 03:29:00,
2013-04-20 22:30:00,43.4,29.2,30.22,ESE,115,8.0,8.0,57,0.00,,,0.00,0,Wunderground v.1.15,2013-04-21 03:30:00,
2013-04-20 22:32:00,43.4,29.2,30.22,ESE,114,8.0,9.0,57,0.00,,,0.00,0,Wunderground v.1.15,2013-04-21 03:32:00,
2013-04-20 22:33:00,43.4,29.2,30.22,ESE,121,4.0,9.0,57,0.00,,,0.00,0,Wunderground v.1.15,2013-04-21 03:33:00,
2013-04-20 22:35:00,43.4,29.6,30.22,ESE,116,8.0,9.0,58,0.00,,,0.00,0,Wunderground v.1.15,2013-04-21 03:35:00,
2013-04-20 22:39:00,43.3,29.1,30.23,ESE,117,9.0,9.0,57,0.00,,,0.00,0,Wunderground v.1.15,2013-04-21 03:39:00,
2013-04-20 22:40:00,43.3,29.1,30.23,ESE,116,7.0,7.0,57,0.00,,,0.00,0,Wunderground v.1.15,2013-04-21 03:40:00,
2013-04-20 22:41:00,43.2,29.4,30.23,SE,139,9.0,9.0,58,0.00,,,0.00,0,Wunderground v.1.15,2013-04-21 03:41:00,
2013-04-20 22:42:00,43.2,29.4,30.23,SE,127,6.0,9.0,58,0.00,,,0.00,0,Wunderground v.1.15,2013-04-21 03:42:00,
2013-04-20 22:44:00,43.1,29.3,30.23,SE,140,6.0,9.0,58,0.00,,,0.00,0,Wunderground v.1.15,2013-04-21 03:44:00,
2013-04-20 22:46:00,43.1,28.9,30.23,SE,126,6.0,11.0,57,0.00,,,0.00,0,Wunderground v.1.15,2013-04-21 03:46:00,
2013-04-20 22:48:00,43.1,29.3,30.22,ESE,119,11.0,11.0,58,0.00,,,0.00,0,Wunderground v.1.15,2013-04-21 03:48:00,
2013-04-20 22:49:00,43.1,28.9,30.22,SE,126,8.0,11.0,57,0.00,,,0.00,0,Wunderground v.1.15,2013-04-21 03:49:00,
2013-04-20 22:50:00,43.0,29.2,30.22,ESE,115,7.0,12.0,58,0.00,,,0.00,0,Wunderground v.1.15,2013-04-21 03:50:00,
2013-04-20 22:51:00,43.0,29.2,30.22,ESE,111,8.0,12.0,58,0.00,,,0.00,0,Wunderground v.1.15,2013-04-21 03:51:00,
2013-04-20 22:54:00,42.9,29.1,30.21,SE,137,9.0,12.0,58,0.00,,,0.00,0,Wunderground v.1.15,2013-04-21 03:54:00,
2013-04-20 22:55:00,42.9,29.1,30.21,ESE,111,10.0,12.0,58,0.00,,,0.00,0,Wunderground v.1.15,2013-04-21 03:55:00,
2013-04-20 22:56:00,42.8,29.0,30.21,SE,125,9.0,12.0,58,0.00,,,0.00,0,Wunderground v.1.15,2013-04-21 03:56:00,
2013-04-20 22:59:00,42.8,28.6,30.20,ESE,115,11.0,13.0,57,0.00,,,0.00,0,Wunderground v.1.15,2013-04-21 03:59:00,
2013-04-20 23:00:00,42.8,29.0,30.20,ESE,117,11.0,11.0,58,0.00,,,0.00,0,Wunderground v.1.15,2013-04-21 04:00:00,
2013-04-20 23:01:00,42.8,29.0,30.20,ESE,111,12.0,12.0,58,0.00,,,0.00,0,Wunderground v.1.15,2013-04-21 04:01:00,
2013-04-20 23:02:00,42.7,28.9,30.20,SE,134,13.0,13.0,58,0.00,,,0.00,0,Wunderground v.1.15,2013-04-21 04:02:00,
2013-04-20 23:05:00,42.7,28.9,30.19,SE,125,7.0,13.0,58,0.00,,,0.00,0,Wunderground v.1.15,2013-04-21 04:05:00,
2013-04-20 23:06:00,42.7,28.9,30.19,SE,126,7.0,13.0,58,0.00,,,0.00,0,Wunderground v.1.15,2013-04-21 04:06:00,
2013-04-20 23:07:00,42.6,28.8,30.19,ESE,114,12.0,13.0,58,0.00,,,0.00,0,Wunderground v.1.15,2013-04-21 04:07:00,
2013-04-20 23:08:00,42.6,28.8,30.19,SE,128,14.0,14.0,58,0.00,,,0.00,0,Wunderground v.1.15,2013-04-21 04:08:00,
2013-04-20 23:11:00,42.7,28.9,30.20,SE,139,12.0,13.0,58,0.00,,,0.00,0,Wunderground v.1.15,2013-04-21 04:11:00,
2013-04-20 23:12:00,42.7,28.9,30.20,SE,135,7.0,13.0,58,0.00,,,0.00,0,Wunderground v.1.15,2013-04-21 04:12:00,
2013-04-20 23:13:00,42.7,28.9,30.20,ESE,123,9.0,13.0,58,0.00,,,0.00,0,Wunderground v.1.15,2013-04-21 04:13:00,
2013-04-20 23:14:00,42.7,28.9,30.20,SE,137,10.0,13.0,58,0.00,,,0.00,0,Wunderground v.1.15,2013-04-21 04:14:00,
2013-04-20 23:16:00,42.7,28.9,30.20,SE,140,7.0,13.0,58,0.00,,,0.00,0,Wunderground v.1.15,2013-04-21 04:16:00,
2013-04-20 23:17:00,42.5,28.8,30.20,ESE,109,9.0,13.0,58,0.00,,,0.00,0,Wunderground v.1.15,2013-04-21 04:17:00,
2013-04-20 23:19:00,42.5,28.8,30.21,ESE,117,8.0,13.0,58,0.00,,,0.00,0,Wunderground v.1.15,2013-04-21 04:19:00,
2013-04-20 23:20:00,42.5,28.3,30.21,ESE,121,8.0,13.0,57,0.00,,,0.00,0,Wunderground v.1.15,2013-04-21 04:20:00,
2013-04-20 23:21:00,42.5,28.3,30.21,ESE,115,8.0,13.0,57,0.00,,,0.00,0,Wunderground v.1.15,2013-04-21 04:21:00,
2013-04-20 23:23:00,42.5,28.8,30.21,ESE,121,10.0,13.0,58,0.00,,,0.00,0,Wunderground v.1.15,2013-04-21 04:23:00,
2013-04-20 23:24:00,42.5,28.8,30.22,ESE,104,5.0,13.0,58,0.00,,,0.00,0,Wunderground v.1.15,2013-04-21 04:24:00,
2013-04-20 23:26:00,42.5,28.8,30.22,SE,134,7.0,13.0,58,0.00,,,0.00,0,Wunderground v.1.15,2013-04-21 04:26:00,
2013-04-20 23:27:00,42.5,28.8,30.21,SE,126,10.0,13.0,58,0.00,,,0.00,0,Wunderground v.1.15,2013-04-21 04:27:00,
2013-04-20 23:28:00,42.5,28.8,30.21,East,92,10.0,13.0,58,0.00,,,0.00,0,Wunderground v.1.15,2013-04-21 04:28:00,
2013-04-20 23:30:00,42.4,28.7,30.20,ESE,116,12.0,14.0,58,0.00,,,0.00,0,Wunderground v.1.15,2013-04-21 04:30:00,
2013-04-20 23:31:00,42.5,28.8,30.20,SE,130,13.0,15.0,58,0.00,,,0.00,0,Wunderground v.1.15,2013-04-21 04:31:00,
2013-04-20 23:32:00,42.4,28.7,30.20,ESE,121,15.0,15.0,58,0.00,,,0.00,0,Wunderground v.1.15,2013-04-21 04:32:00,
2013-04-20 23:36:00,42.4,29.1,30.20,ESE,122,13.0,15.0,59,0.00,,,0.00,0,Wunderground v.1.15,2013-04-21 04:36:00,
2013-04-20 23:37:00,42.4,29.1,30.20,ESE,107,9.0,15.0,59,0.00,,,0.00,0,Wunderground v.1.15,2013-04-21 04:37:00,
2013-04-20 23:38:00,42.4,29.1,30.20,SE,132,7.0,15.0,59,0.00,,,0.00,0,Wunderground v.1.15,2013-04-21 04:38:00,
2013-04-20 23:39:00,42.3,29.0,30.20,ESE,112,7.0,15.0,59,0.00,,,0.00,0,Wunderground v.1.15,2013-04-21 04:39:00,
2013-04-20 23:42:00,42.3,29.0,30.20,ESE,123,10.0,11.0,59,0.00,,,0.00,0,Wunderground v.1.15,2013-04-21 04:42:00,
2013-04-20 23:43:00,42.3,29.0,30.20,ESE,109,8.0,11.0,59,0.00,,,0.00,0,Wunderground v.1.15,2013-04-21 04:43:00,
2013-04-20 23:44:00,42.2,28.9,30.20,ESE,123,9.0,11.0,59,0.00,,,0.00,0,Wunderground v.1.15,2013-04-21 04:44:00,
2013-04-20 23:45:00,42.2,28.9,30.19,SE,127,11.0,11.0,59,0.00,,,0.00,0,Wunderground v.1.15,2013-04-21 04:45:00,
2013-04-20 23:48:00,42.2,29.3,30.20,SE,131,8.0,12.0,60,0.00,,,0.00,0,Wunderground v.1.15,2013-04-21 04:48:00,
2013-04-20 23:49:00,42.2,29.3,30.20,SE,126,6.0,12.0,60,0.00,,,0.00,0,Wunderground v.1.15,2013-04-21 04:49:00,
2013-04-20 23:50:00,42.2,29.3,30.20,ESE,116,9.0,9.0,60,0.00,,,0.00,0,Wunderground v.1.15,2013-04-21 04:50:00,
2013-04-20 23:51:00,42.2,29.3,30.20,East,94,7.0,11.0,60,0.00,,,0.00,0,Wunderground v.1.15,2013-04-21 04:51:00,
2013-04-20 23:55:00,42.1,29.2,30.20,ESE,103,4.0,11.0,60,0.00,,,0.00,0,Wunderground v.1.15,2013-04-21 04:55:00,
2013-04-20 23:56:00,42.1,29.6,30.20,SE,131,4.0,11.0,61,0.00,,,0.00,0,Wunderground v.1.15,2013-04-21 04:56:00,
2013-04-20 23:57:00,42.1,29.6,30.20,ESE,110,3.0,11.0,61,0.00,,,0.00,0,Wunderground v.1.15,2013-04-21 04:57:00,
2013-04-20 23:59:00,42.1,29.2,30.20,SE,129,8.0,11.0,60,0.00,,,0.00,0,Wunderground v.1.15,2013-04-21 04:59:00,